GFSSE_sfc_wetblb_003.txt.gz
Wetbulb
63.09 66.99 72.01 72.81 72.56 72.31 72.32 72.16 72.65 72.64 71.93 71.74 72.00 72.30 72.34 72.08 71.95 71.42 71.36 71.15 71.59 72.46 72.27 72.23 72.39 72.02 71.60 71.72 71.12 70.53 68.96 68.20 68.32 69.17 69.34 70.03 72.42 73.64 73.32 72.90 72.58 72.77 73.11
63.90 67.18 71.35 72.52 72.63 72.70 72.87 72.99 72.95 72.19 71.72 71.89 72.11 71.92 70.90 72.13 72.19 71.86 71.56 71.82 72.04 72.24 72.11 71.58 71.24 70.79 69.70 69.44 69.10 68.89 67.90 66.74 65.40 65.99 66.81 67.54 69.64 73.20 72.95 72.85 72.60 72.06 72.34
63.42 67.42 71.16 71.73 72.61 72.95 73.07 72.81 72.69 71.98 71.85 72.10 72.28 71.45 71.28 71.10 70.78 70.34 70.80 71.30 71.75 71.72 71.02 69.98 68.63 67.96 67.40 67.17 66.90 65.75 64.53 63.13 61.29 60.15 60.95 63.85 67.47 71.14 72.48 72.22 71.90 70.72 70.47
64.69 68.21 70.37 70.75 72.08 72.69 73.12 72.92 72.62 72.08 72.40 72.12 72.18 71.55 71.09 70.66 70.09 69.14 68.25 69.02 70.65 70.13 69.12 67.31 65.79 65.07 64.43 64.41 63.53 62.96 62.47 59.83 58.27 56.88 57.31 59.49 61.08 68.10 71.05 71.74 70.98 70.17 70.07
65.65 68.00 68.72 70.66 72.24 72.58 72.86 72.74 72.52 72.67 72.93 72.15 71.23 70.31 69.27 68.54 67.99 66.91 66.77 67.45 67.98 68.20 66.63 65.22 63.78 62.84 62.56 61.96 61.83 60.80 58.90 57.41 56.33 55.75 57.87 61.91 63.56 68.51 70.47 71.40 70.92 69.96 70.35
64.68 66.08 67.93 70.53 71.47 71.74 72.64 72.35 72.16 72.57 72.45 70.75 69.69 68.67 68.04 67.56 66.37 65.58 65.36 66.78 66.46 65.70 64.47 62.89 61.90 61.56 61.33 60.75 59.86 58.14 57.05 55.52 53.50 54.99 57.69 60.86 64.57 67.82 71.09 70.84 70.84 70.77 70.11
63.61 64.94 67.47 69.36 70.47 70.97 71.08 71.89 71.32 71.39 70.21 69.44 67.87 67.46 67.81 66.56 65.26 64.12 63.95 64.55 63.85 62.87 61.73 61.35 61.24 60.98 59.43 58.97 58.33 56.89 55.00 53.57 51.47 53.22 55.70 59.23 65.06 67.90 68.45 68.63 68.81 69.32 69.69
62.67 62.94 65.44 66.57 67.97 68.77 68.82 70.48 70.62 70.41 70.07 68.99 67.61 66.87 66.60 65.15 63.61 62.77 62.81 62.51 61.98 61.21 60.80 60.74 59.79 58.93 58.47 57.58 56.42 55.42 53.19 50.25 49.31 51.56 54.47 57.93 63.21 65.61 66.16 66.26 66.51 66.43 66.95
61.31 61.82 63.64 65.65 66.18 65.71 66.74 67.70 68.90 69.46 69.05 68.47 67.31 66.29 65.13 63.42 62.38 61.62 61.50 61.33 61.30 60.83 60.15 59.08 58.51 58.17 57.37 56.02 54.48 52.92 51.04 49.16 47.85 50.29 52.92 56.97 60.89 63.20 63.80 63.88 64.26 64.51 64.57
59.22 60.49 61.76 63.29 64.28 65.13 66.14 64.54 65.75 67.00 67.38 66.94 66.01 64.35 62.29 62.09 61.83 61.50 61.22 61.26 60.75 60.48 58.79 57.84 57.36 56.65 55.68 53.97 52.14 50.03 47.82 46.59 46.04 48.07 51.60 55.29 58.35 60.14 61.25 61.89 62.32 62.81 62.97
56.72 58.23 59.63 60.94 61.45 62.03 62.75 63.08 63.41 64.17 64.31 63.78 62.50 60.64 58.68 57.17 57.45 57.16 57.13 60.86 60.19 58.85 57.48 56.08 55.35 53.81 52.14 50.82 49.44 47.30 44.65 43.91 44.42 45.62 49.61 52.88 56.24 58.76 59.66 59.95 60.47 61.01 61.30
56.34 57.31 57.69 58.89 59.16 58.84 58.61 60.80 62.29 61.65 61.94 59.97 58.50 55.92 53.35 52.91 53.03 52.55 55.31 58.47 59.19 57.84 55.81 54.16 51.72 48.14 43.88 43.37 43.59 43.25 42.77 42.66 43.12 43.80 47.58 50.99 54.20 56.01 57.67 58.76 59.52 59.89 60.36
56.95 57.60 56.72 57.19 57.45 56.95 57.10 57.29 58.00 58.36 57.50 55.91 54.60 51.55 50.00 49.49 50.85 51.31 51.82 51.10 51.08 49.76 49.27 47.76 43.75 42.76 42.81 42.69 41.99 41.81 41.80 42.02 42.50 43.05 45.97 49.87 53.31 55.35 56.77 57.94 59.07 59.96 59.69
54.57 56.45 56.98 56.14 55.06 55.14 55.20 55.35 55.59 55.62 54.10 52.84 51.65 48.96 46.92 46.37 47.96 47.89 47.85 46.81 46.45 44.56 42.70 41.99 41.96 41.67 41.35 40.85 40.87 40.59 40.81 41.33 41.96 42.88 44.30 48.26 51.65 54.60 56.37 57.77 58.27 58.86 59.43
53.14 54.70 55.55 55.30 55.24 54.40 52.93 53.70 53.29 54.01 52.81 51.93 49.18 46.57 45.58 44.68 45.95 45.48 44.42 42.36 41.81 40.57 40.87 40.54 40.63 40.41 40.32 39.75 39.77 39.99 39.80 40.30 40.99 42.34 43.80 48.33 51.15 54.23 56.18 56.86 56.94 58.14 59.01
52.41 53.48 54.62 54.17 55.06 54.10 53.12 52.65 52.91 52.61 51.80 49.16 47.97 46.39 43.51 43.93 44.51 44.11 41.00 39.70 39.46 39.88 39.67 39.83 39.74 39.48 39.45 39.31 38.52 38.82 39.01 39.82 40.51 41.54 42.60 46.24 49.22 51.95 54.05 55.35 55.62 56.30 56.71
48.46 51.74 53.32 53.33 54.13 53.38 53.05 52.07 52.31 51.23 48.40 48.30 47.27 44.88 43.10 42.50 42.56 42.21 40.43 38.69 38.86 38.77 38.55 38.21 37.57 37.82 38.19 38.04 38.20 38.38 38.91 39.49 40.49 40.46 41.16 42.24 46.28 51.02 52.31 53.54 54.11 55.63 56.46
46.64 46.59 50.18 52.72 52.22 52.92 52.93 52.35 51.67 50.23 48.30 48.33 46.44 44.81 42.77 41.87 41.78 40.64 39.79 38.37 37.99 37.69 37.94 37.68 36.99 36.73 37.41 38.02 37.56 37.35 38.19 39.28 39.56 39.06 39.89 40.55 40.94 40.97 43.88 46.85 50.85 52.74 52.45
45.72 45.70 45.43 50.30 51.27 51.49 52.25 52.35 51.28 48.87 48.33 47.69 45.15 43.60 42.11 41.10 40.66 40.56 39.77 38.26 37.18 36.87 36.80 36.18 35.33 36.59 36.43 36.66 36.42 37.15 37.80 38.69 38.21 38.06 38.13 38.69 38.86 38.79 39.32 42.85 44.70 47.08 48.55
44.76 45.49 45.36 45.53 49.44 50.25 50.71 50.52 48.40 45.32 47.45 45.95 44.09 42.70 41.30 41.12 39.85 39.81 38.96 37.31 36.65 36.12 35.42 34.99 35.34 34.73 36.24 36.18 34.70 35.60 36.87 36.77 37.44 38.04 37.37 37.46 37.56 37.63 38.36 38.59 39.70 41.49 44.86
42.67 42.61 43.15 41.72 45.06 47.70 47.58 45.77 43.12 43.02 44.52 42.13 43.30 42.41 41.30 40.87 39.62 39.40 38.52 36.68 36.07 35.89 35.54 34.90 34.68 34.65 34.10 34.34 35.38 35.14 35.65 36.46 36.54 36.84 37.22 36.60 36.11 36.39 36.83 37.36 38.02 38.84 40.30
42.73 41.45 41.69 40.84 42.19 45.28 46.31 46.29 44.86 45.22 44.05 43.27 42.05 40.60 41.14 40.01 39.19 38.73 37.86 36.53 35.61 34.99 34.11 33.93 34.35 33.14 33.58 33.11 36.39 35.72 33.78 35.13 35.94 36.10 36.29 35.33 34.80 35.71 35.44 35.73 36.36 36.95 37.93
41.39 40.39 40.40 40.45 40.58 43.24 44.33 43.51 36.18 37.10 35.85 37.07 36.72 37.39 38.12 38.56 38.31 38.54 37.70 36.76 35.37 35.47 34.13 33.82 34.23 34.88 33.55 32.31 32.51 37.31 32.89 35.35 33.76 34.51 34.59 34.88 34.18 34.58 34.82 34.87 35.02 35.79 36.88
40.79 40.31 39.58 39.78 39.15 41.39 41.95 40.99 40.69 40.07 38.40 38.35 40.28 39.51 37.84 37.91 37.68 37.99 36.98 36.08 35.41 34.85 34.16 33.45 33.64 34.56 34.41 33.17 32.36 31.89 32.38 34.60 34.69 32.45 33.00 33.29 33.81 33.05 33.42 33.96 34.36 35.01 36.75
37.62 37.91 38.49 38.43 38.11 40.07 40.15 40.74 40.17 40.01 40.03 37.72 38.93 37.98 36.85 36.08 36.78 35.79 36.02 35.10 34.73 33.97 34.24 33.37 32.38 32.49 33.85 34.03 33.55 31.40 30.98 30.87 31.11 33.29 32.88 31.67 32.28 32.69 32.93 33.34 34.33 35.57 37.20
37.23 35.90 36.16 36.54 36.34 37.84 38.84 39.18 39.33 39.45 37.69 36.18 36.32 36.43 35.35 34.60 34.35 34.65 34.78 34.62 34.61 34.14 32.95 32.81 33.36 33.09 33.02 33.04 32.97 32.33 31.97 31.94 30.53 31.19 30.72 30.21 30.37 30.83 32.05 33.33 33.77 35.44 34.88

GFSSE_sfc_wetblb_006.txt.gz
Wetbulb
66.33 69.07 71.88 73.47 73.10 72.70 72.88 72.72 72.47 72.32 72.15 72.32 72.04 71.92 71.83 71.75 71.53 71.49 71.18 71.56 71.71 72.65 72.58 72.48 72.09 71.67 71.43 70.68 70.32 69.08 68.40 67.70 67.67 68.70 69.48 71.58 73.34 73.08 72.91 72.54 72.84 72.79 72.99
67.03 69.75 71.47 73.21 73.12 72.98 72.82 72.90 73.11 72.27 72.11 72.27 72.59 72.13 71.95 72.04 72.26 71.82 71.88 71.94 72.22 72.16 71.95 71.38 70.86 70.27 69.41 69.04 68.66 67.57 66.42 65.15 64.60 64.75 65.86 70.21 72.06 72.12 71.80 71.70 71.61 71.03 71.68
66.34 70.21 72.10 72.33 73.09 72.97 72.99 73.06 72.69 71.94 71.94 72.23 72.52 71.30 71.10 71.76 71.22 71.12 71.46 71.66 71.97 71.46 70.90 70.01 69.19 68.14 67.61 67.16 65.86 64.65 64.02 62.16 60.97 60.01 62.11 68.94 71.40 72.08 71.85 71.31 71.13 70.00 70.38
66.33 69.96 71.55 71.18 72.73 73.10 73.04 72.99 72.67 71.87 71.77 72.16 72.42 71.72 71.44 70.91 70.01 69.10 68.95 70.76 70.76 70.14 69.16 67.96 66.48 65.30 64.96 63.95 63.41 62.94 60.98 59.70 58.76 59.13 65.06 65.98 67.22 69.91 71.32 70.87 69.93 69.36 69.55
66.28 69.04 70.58 70.68 72.39 72.89 73.22 73.05 72.72 72.09 71.97 72.36 72.34 71.85 71.18 69.45 68.76 67.19 67.04 67.57 68.72 68.72 67.37 65.60 64.23 63.58 62.66 62.36 60.99 59.50 58.03 56.88 56.73 61.54 63.35 65.85 68.51 70.30 70.89 71.46 70.45 69.23 69.83
66.69 68.56 69.43 70.88 72.11 72.58 72.96 72.97 72.60 71.91 72.26 72.59 71.91 69.97 69.09 68.23 67.43 66.03 66.21 67.32 67.50 66.75 65.49 63.68 62.58 62.22 61.40 60.29 58.85 57.54 56.33 55.33 56.72 58.16 61.58 64.61 67.97 69.17 70.75 70.16 71.06 69.92 70.17
66.94 68.76 69.94 70.51 71.66 72.15 72.52 72.64 72.51 72.39 72.71 72.19 70.09 69.17 68.88 68.02 66.76 65.73 65.55 66.32 65.58 64.54 63.09 62.32 62.23 60.59 59.72 58.94 57.49 55.84 54.19 53.79 55.77 57.26 60.03 64.42 67.42 67.69 68.22 68.31 68.50 68.54 68.47
66.86 68.54 69.37 67.89 69.15 70.48 71.30 72.02 71.99 72.11 71.53 70.51 69.53 67.48 68.56 67.17 65.80 64.68 64.62 64.58 63.80 62.49 61.89 61.73 60.64 59.32 58.54 57.51 56.18 54.28 52.05 50.75 54.21 56.25 59.27 62.38 64.26 65.68 65.59 65.95 66.08 66.06 66.30
67.19 67.83 68.74 69.51 68.79 66.66 67.98 68.95 69.98 70.48 70.00 69.64 68.95 67.91 67.09 66.36 64.49 63.45 63.36 62.83 62.26 61.50 61.24 60.13 59.24 58.57 57.30 55.73 54.12 52.37 50.54 49.92 52.33 54.60 55.66 59.80 60.68 62.76 63.27 63.41 63.80 64.06 64.31
66.10 66.92 67.63 68.57 68.88 68.88 68.59 64.89 66.42 68.19 68.29 68.22 67.35 65.79 64.57 63.84 63.57 62.86 62.20 62.29 61.51 61.14 59.76 58.82 58.42 57.21 55.75 53.83 51.56 49.24 47.80 48.09 50.27 52.05 54.65 56.76 59.01 60.39 61.27 61.45 62.06 62.27 62.63
63.45 65.41 66.66 67.04 67.71 67.93 67.89 66.22 64.05 65.21 65.90 65.58 65.02 62.77 61.30 63.28 62.02 60.81 60.42 62.02 61.47 60.08 58.87 57.86 56.91 55.08 52.95 50.82 48.82 46.93 47.52 48.47 48.52 49.97 52.72 53.12 56.26 58.60 59.20 59.50 60.17 60.51 61.11
61.70 63.06 64.72 65.59 65.89 66.30 65.92 67.25 67.46 67.59 67.81 67.55 66.79 64.76 63.76 61.98 61.05 59.68 58.22 60.12 61.07 59.43 57.49 56.40 54.14 50.15 47.28 49.03 47.81 46.13 47.86 47.49 47.87 48.28 50.99 51.67 54.28 55.75 57.42 58.33 58.92 59.59 60.46
61.25 62.63 62.83 63.81 64.82 64.93 64.93 65.58 66.27 66.57 66.05 66.68 65.90 63.79 62.09 59.75 58.54 58.39 59.27 59.35 59.34 56.21 55.75 53.73 49.87 48.14 48.07 48.34 47.82 47.58 47.14 47.56 48.23 48.21 49.19 50.65 54.05 55.44 56.79 57.92 59.34 59.53 59.40
59.01 61.22 62.51 62.69 63.10 63.72 64.41 64.16 64.76 65.32 64.90 64.23 63.24 61.32 59.38 58.42 57.59 56.82 57.69 58.08 57.43 55.73 53.60 49.92 48.23 48.05 47.22 46.16 46.35 46.06 46.38 47.09 47.42 48.03 48.60 49.17 52.47 54.85 56.63 58.06 58.52 59.35 59.83
57.02 59.14 60.94 62.17 62.01 62.38 62.52 62.72 63.19 63.34 63.32 62.81 61.37 59.30 58.48 57.18 55.79 55.30 56.12 55.79 55.22 52.92 50.14 47.60 47.47 46.58 46.08 45.16 45.25 45.49 45.35 45.84 46.42 47.56 49.63 49.49 52.43 54.99 56.42 57.12 57.90 59.25 59.58
55.46 57.41 59.59 60.66 61.26 61.53 61.44 61.53 61.58 61.85 62.33 61.72 59.87 58.07 56.93 56.07 54.41 53.63 53.93 53.10 52.02 49.72 47.49 47.18 46.58 46.22 45.67 45.30 44.04 44.37 44.59 45.48 46.13 46.80 48.64 50.62 51.11 53.34 54.55 55.47 56.45 57.13 58.30
54.06 56.02 57.50 59.11 60.19 60.42 60.42 60.90 60.78 60.75 60.46 60.15 58.64 57.39 55.35 54.33 52.66 51.84 51.80 50.63 48.97 46.95 46.32 46.03 45.16 45.11 44.40 43.70 43.54 43.88 44.40 44.85 45.25 45.20 46.48 48.99 51.67 50.70 53.38 54.23 54.91 57.34 57.20
53.64 53.45 55.43 57.23 58.37 59.18 59.86 60.19 59.84 59.58 58.76 58.26 58.03 56.67 54.35 52.64 51.29 50.41 49.78 48.34 46.58 45.41 45.18 44.67 43.94 43.56 43.91 43.49 43.32 43.41 44.04 44.64 43.77 44.31 45.02 46.09 47.22 46.89 47.57 50.62 53.14 53.46 53.60
53.19 52.90 52.87 55.37 56.64 57.50 58.84 59.25 59.43 58.72 57.86 57.45 57.08 55.93 53.74 51.35 49.98 49.14 48.52 47.37 45.13 44.42 44.21 44.02 43.33 43.79 43.01 42.92 42.46 43.48 43.86 44.24 43.12 42.64 43.37 43.22 42.85 43.76 45.29 46.03 47.14 48.00 48.99
53.12 52.87 52.59 52.70 55.01 56.28 57.05 57.81 58.02 57.47 56.81 56.69 56.20 54.97 53.34 50.78 48.56 47.98 47.15 46.70 44.50 43.61 43.39 43.08 42.71 42.78 43.66 42.69 39.80 41.28 42.42 42.97 43.08 42.90 42.10 41.64 41.78 42.16 42.72 43.36 45.13 45.79 47.99
51.27 50.51 50.48 50.76 51.54 54.31 54.34 54.38 55.04 54.60 54.59 54.59 55.08 53.52 52.59 50.79 48.43 47.33 46.58 45.50 43.54 43.07 43.29 42.60 42.39 40.97 40.57 42.07 41.61 40.49 40.57 41.42 41.48 41.56 41.64 41.14 40.50 40.47 40.84 41.98 43.18 44.04 46.70
47.94 48.55 48.63 48.85 49.20 51.79 53.22 53.86 54.28 53.58 53.91 53.75 53.47 52.02 51.59 50.13 47.99 46.55 46.32 45.01 43.31 43.03 42.56 41.90 41.14 40.43 41.36 41.19 42.39 42.01 38.74 38.70 40.15 40.52 40.79 39.53 39.45 40.14 39.54 39.72 40.65 41.36 43.54
44.37 45.06 45.83 47.20 47.43 48.82 51.02 51.82 51.46 48.57 49.24 50.10 50.43 49.87 48.91 49.15 47.55 46.53 45.88 44.85 43.54 43.56 42.39 42.11 41.95 41.79 40.18 39.71 41.65 43.56 39.15 40.69 39.42 39.65 39.31 39.19 38.84 39.44 39.38 39.05 39.41 40.11 42.21
42.33 43.56 44.40 45.11 45.29 45.86 48.43 48.55 47.88 46.42 45.39 46.72 47.13 47.54 47.53 47.57 47.03 45.70 45.51 44.71 43.84 43.02 42.57 42.26 41.96 42.68 43.70 39.57 38.76 38.49 39.81 42.88 40.54 36.24 38.27 38.43 38.43 37.37 38.19 38.56 38.90 39.25 42.12
42.58 42.58 42.38 43.36 43.18 44.44 45.05 46.37 46.04 46.08 47.39 47.27 45.53 46.08 45.88 45.60 45.51 45.03 44.59 44.11 43.06 42.31 42.86 42.06 40.74 41.34 42.52 43.25 41.82 38.23 38.25 38.80 39.29 41.39 37.14 35.36 36.77 37.28 37.61 38.28 38.96 39.57 40.91
41.98 41.45 41.58 41.33 40.70 41.85 42.97 44.00 43.84 44.18 44.78 44.36 43.47 43.74 44.25 43.99 43.19 43.60 43.23 43.45 43.11 41.94 41.48 41.38 41.03 41.18 41.41 42.04 42.80 40.79 39.90 38.79 38.18 39.00 38.78 37.45 36.36 35.21 36.52 37.33 38.06 39.40 39.31

GFSSE_sfc_wetblb_009.txt.gz
Wetbulb
67.54 70.36 71.98 73.11 73.21 72.93 73.13 73.07 72.73 72.68 72.39 72.15 71.99 71.61 71.27 71.30 70.93 70.65 70.94 71.26 72.13 72.85 72.80 72.38 71.87 71.75 71.26 70.40 69.57 68.56 67.79 67.44 68.16 69.00 70.90 73.25 72.95 72.84 72.56 72.38 72.98 72.14 72.81
68.06 70.56 71.56 73.58 73.56 73.00 73.56 73.20 73.00 72.91 72.25 72.14 71.84 71.88 71.98 71.98 72.12 71.81 71.42 71.40 72.46 72.38 72.00 71.10 70.72 70.18 69.74 69.18 68.07 66.79 65.91 65.03 64.49 64.64 65.72 72.53 72.72 71.76 71.13 71.19 71.38 70.73 72.03
67.29 69.85 71.74 72.84 73.34 73.37 73.20 73.17 73.03 72.32 72.14 72.27 72.56 71.75 71.95 72.05 71.54 71.61 71.85 72.16 72.11 71.50 70.93 70.32 69.55 68.57 67.84 66.59 64.90 64.77 63.47 62.62 62.13 61.89 64.29 69.16 71.46 72.13 71.34 70.66 70.73 70.35 70.40
67.17 69.81 71.05 71.64 73.00 73.20 73.08 73.16 72.87 72.07 72.05 72.15 72.44 71.40 71.56 71.51 70.46 70.14 70.90 71.33 71.10 70.28 69.01 68.46 67.38 66.08 65.22 63.81 63.22 61.50 60.51 59.64 59.28 61.93 65.21 66.88 68.17 70.47 71.56 70.32 69.39 69.61 69.55
66.65 69.90 71.22 71.36 72.91 73.09 73.07 73.16 72.92 72.11 71.82 72.08 72.39 71.82 71.43 70.70 69.11 68.18 67.77 68.35 69.07 68.76 67.66 66.31 65.38 64.32 63.11 62.13 60.15 58.98 57.83 56.79 58.29 61.59 64.50 66.43 67.92 71.16 71.47 71.18 69.31 69.01 70.02
66.31 69.10 70.18 71.38 72.65 73.01 73.19 73.07 72.63 71.86 71.67 72.19 72.37 72.07 70.73 69.34 68.34 66.50 66.22 67.28 67.87 67.47 66.14 64.36 63.63 62.88 61.56 59.94 58.05 57.31 56.46 55.83 58.47 58.43 62.19 64.94 68.62 70.37 70.04 70.69 70.19 69.76 70.05
66.43 67.93 70.28 70.66 71.66 72.30 72.72 73.14 72.76 72.19 71.91 72.71 72.61 70.93 70.00 69.10 67.55 66.07 65.94 66.87 66.84 66.07 64.34 62.94 62.58 60.84 59.83 58.41 56.79 55.34 53.96 54.87 56.60 57.95 61.20 65.09 66.49 68.01 68.65 68.52 68.65 68.38 68.34
67.10 68.08 68.71 68.29 69.65 71.02 71.91 72.38 72.49 72.45 72.52 72.43 71.45 70.31 69.94 68.65 67.30 65.90 65.44 65.96 65.50 64.31 63.02 62.66 60.99 59.57 58.46 57.21 55.37 53.67 52.84 53.42 55.63 57.29 59.95 63.05 63.98 64.90 65.01 65.79 66.06 66.15 66.45
67.49 67.88 68.64 69.57 69.63 67.40 69.13 70.12 70.99 71.57 71.73 70.86 69.75 68.76 68.73 67.87 66.48 65.38 64.87 64.86 64.11 62.84 62.44 61.64 59.90 58.89 57.59 55.86 53.77 52.05 50.71 53.07 53.81 55.00 56.53 59.77 60.63 62.73 63.05 63.29 63.81 64.12 64.41
66.57 67.76 68.17 68.83 69.12 69.50 69.91 65.93 67.55 68.92 68.90 68.94 67.84 66.39 65.44 65.17 64.96 64.41 63.43 63.96 62.83 61.93 61.15 60.03 59.24 58.06 56.33 54.08 51.35 49.23 48.03 50.99 51.32 53.37 55.25 56.17 59.21 60.62 61.14 61.28 61.82 62.09 62.48
64.46 66.64 67.69 67.97 68.58 68.64 68.62 67.41 64.87 65.98 66.56 66.30 65.65 63.34 62.74 65.30 63.96 62.38 61.37 62.74 62.65 61.76 60.28 59.43 58.10 56.48 53.95 51.29 49.00 47.06 48.87 49.90 49.72 50.99 52.94 53.76 56.45 58.43 58.87 59.54 60.15 60.62 61.25
62.22 64.24 66.42 67.29 67.52 67.97 67.57 68.03 67.53 67.53 67.76 67.92 67.82 66.31 65.96 65.25 63.40 61.16 59.20 60.93 62.22 60.78 59.54 58.52 56.63 53.72 50.90 50.62 48.13 48.10 49.50 49.22 49.49 49.12 51.24 52.60 55.14 56.18 57.59 58.32 59.02 59.75 60.81
60.60 62.88 64.39 65.86 66.76 66.90 67.16 67.37 67.66 67.34 66.39 66.56 66.44 67.19 65.92 64.68 62.34 60.78 60.58 60.23 60.33 57.30 56.97 55.96 52.07 49.30 50.65 50.73 49.74 49.56 48.87 49.46 49.11 49.30 49.55 51.43 54.83 56.25 56.94 58.07 59.44 59.58 59.28
58.26 60.00 63.06 64.39 65.13 66.05 66.38 66.21 66.55 66.51 66.66 65.34 66.63 67.15 65.48 63.26 61.11 59.85 59.47 59.92 60.47 58.01 56.96 55.24 51.26 51.78 49.84 48.90 48.80 48.05 47.81 48.51 48.59 49.06 48.78 50.71 53.79 55.89 56.83 58.15 58.50 59.26 60.01
56.61 58.55 60.87 64.12 64.01 64.89 65.32 65.77 65.55 65.82 66.07 66.28 66.72 66.24 64.32 61.76 59.60 58.89 58.79 59.24 59.26 57.47 55.63 52.41 50.42 49.31 49.24 47.78 47.46 47.31 46.71 47.11 47.30 48.30 50.51 51.15 53.41 56.06 56.50 57.23 58.08 59.32 59.99
56.42 57.14 59.64 61.71 63.80 63.58 64.12 64.76 64.64 65.31 65.61 65.41 65.00 64.41 62.86 61.08 59.11 57.71 57.55 57.79 57.40 56.00 53.64 50.34 49.69 48.91 48.34 47.98 46.30 46.17 46.09 46.60 46.96 47.80 49.64 50.29 53.06 54.74 55.24 55.61 56.93 57.73 58.62
55.94 56.63 58.17 60.43 62.51 62.82 63.20 63.49 63.97 64.14 64.04 64.19 63.87 63.22 61.50 60.44 58.49 56.77 56.12 56.07 55.80 53.88 51.16 49.69 48.93 48.66 47.36 46.63 46.11 45.30 45.57 46.25 46.23 46.24 48.28 51.04 51.64 51.50 54.23 55.10 55.97 57.90 58.17
55.19 54.94 56.43 57.02 59.83 62.15 62.33 62.68 62.97 63.19 62.94 63.40 63.11 61.94 60.28 59.18 57.63 55.66 54.51 54.26 53.90 50.67 48.50 47.88 47.08 46.47 46.44 45.53 45.30 45.20 45.72 46.23 45.62 46.01 46.78 48.64 49.26 49.20 49.69 51.30 53.71 54.66 54.91
53.51 53.84 54.51 55.71 57.25 59.86 61.41 62.04 62.25 62.31 61.91 62.08 62.06 60.82 59.69 57.78 56.27 54.20 53.13 52.94 51.46 48.11 47.00 46.56 45.89 46.01 45.39 45.26 45.06 45.19 45.71 45.65 44.91 44.16 44.70 45.24 44.31 46.59 47.48 46.76 47.95 49.03 49.32
51.13 52.23 53.03 53.87 54.68 57.46 59.12 60.44 61.08 61.23 60.96 60.85 60.37 59.77 58.88 57.05 55.30 53.20 52.00 51.09 48.85 46.79 46.00 46.16 45.41 45.94 45.70 45.04 41.66 43.13 44.69 45.15 44.87 44.43 43.64 43.11 43.81 44.15 45.06 45.51 46.51 47.19 49.77
48.16 48.18 49.56 50.89 52.77 54.14 56.17 56.33 57.57 57.82 58.79 59.06 59.22 58.98 57.94 56.41 54.20 52.25 50.58 49.71 47.20 45.83 45.52 45.75 45.33 44.32 44.53 44.04 42.62 42.18 41.96 42.56 43.01 43.24 43.61 42.75 42.01 42.24 43.01 43.95 44.89 46.90 48.40
44.81 45.66 46.97 48.24 50.24 51.32 54.48 55.51 55.97 56.47 57.42 57.74 57.69 57.19 56.45 55.70 53.32 50.93 49.53 48.20 46.39 45.22 45.19 44.77 44.09 42.47 43.79 43.28 43.01 42.42 38.47 38.87 41.28 41.66 42.03 41.19 40.89 41.13 40.85 41.54 42.54 43.53 46.34
43.92 44.47 44.61 45.95 47.09 48.80 51.44 52.53 53.27 53.14 50.55 50.68 53.85 54.65 54.12 53.88 52.93 50.84 49.08 47.97 46.12 45.05 44.14 44.24 43.78 42.66 40.94 41.92 45.20 44.83 41.10 40.13 38.25 40.61 40.38 39.96 39.82 40.10 40.16 40.30 40.78 41.71 44.87
43.05 44.57 44.53 44.60 44.49 46.10 48.39 49.07 49.25 48.76 47.22 49.04 49.44 51.18 51.88 52.18 51.76 50.57 48.74 48.02 46.18 44.60 44.16 43.77 43.73 43.32 43.16 39.29 41.42 42.38 42.96 44.16 39.77 34.59 39.38 39.32 39.50 38.75 39.49 39.68 39.55 40.28 43.60
43.30 43.31 44.31 43.78 43.46 43.96 44.84 45.86 45.88 45.96 47.40 48.80 47.57 46.67 48.65 49.27 49.49 49.85 48.51 47.34 45.98 44.51 44.28 43.73 42.33 42.64 43.48 42.05 40.09 40.16 39.68 40.32 41.88 42.00 35.14 35.77 37.95 38.38 38.62 38.86 39.26 39.47 42.47
42.87 42.52 43.06 42.61 42.20 43.39 43.06 42.99 42.76 42.74 43.41 44.42 45.57 45.11 45.99 46.82 47.49 47.07 47.22 46.34 45.95 44.72 43.62 43.46 42.41 42.07 42.18 42.86 41.78 41.47 39.99 38.68 37.67 39.54 39.81 35.66 34.47 35.68 37.05 37.96 38.47 39.22 40.68

GFSSE_sfc_wetblb_015.txt.gz
Wetbulb
64.84 68.54 72.56 73.77 73.15 73.38 73.96 74.04 74.12 73.18 72.52 71.66 71.84 71.81 71.55 71.27 71.71 71.65 71.64 72.32 73.36 72.86 72.16 72.43 71.84 71.23 70.37 68.92 68.34 67.54 67.26 67.65 68.38 69.68 73.46 73.18 72.55 71.96 72.57 72.47 72.30 71.79 73.08
66.07 69.62 71.84 73.40 73.75 73.91 74.06 73.91 73.70 73.21 72.72 71.61 71.49 71.60 71.43 70.97 70.64 70.76 71.26 72.38 72.98 72.65 71.77 70.61 70.50 69.93 68.99 67.22 66.75 66.12 65.92 65.46 65.42 66.07 68.21 71.99 71.93 71.00 70.75 71.76 71.58 71.12 72.48
67.77 69.48 71.32 72.71 73.52 73.64 73.66 73.48 73.22 73.34 72.82 72.27 71.94 71.61 71.73 71.84 71.83 71.48 71.11 72.25 72.36 71.77 70.91 70.17 70.01 69.10 67.03 66.12 64.83 64.47 64.22 63.56 63.57 64.92 65.35 65.45 69.43 71.00 69.90 70.92 71.11 70.62 71.32
67.75 69.54 70.42 71.76 73.21 73.50 73.67 73.26 73.09 73.21 72.97 72.15 72.01 72.29 72.47 72.28 71.92 71.95 71.82 71.85 71.68 71.31 70.34 69.66 68.69 66.93 65.65 63.81 62.72 61.84 60.99 60.83 62.02 63.73 62.94 64.96 69.55 71.52 70.27 69.84 70.03 69.94 70.28
67.60 68.88 70.33 71.49 73.09 73.31 73.48 73.06 72.88 72.85 72.98 72.80 72.62 72.36 72.37 71.81 71.29 70.71 70.98 71.01 70.41 70.01 68.91 68.16 66.89 65.49 63.52 61.63 60.46 59.14 58.53 59.35 62.18 59.46 60.43 65.99 68.61 70.61 71.03 69.52 69.28 69.68 70.04
65.73 68.12 69.96 71.85 73.11 73.30 73.14 72.95 72.75 72.81 72.70 72.79 72.72 71.84 72.05 71.21 70.08 68.93 68.29 70.29 69.65 68.69 67.48 66.51 65.47 63.82 61.76 59.65 58.25 57.48 58.27 59.90 58.81 54.96 62.04 66.05 66.45 69.94 70.95 70.00 69.52 69.56 69.75
61.35 67.04 69.70 71.29 72.45 72.94 73.04 72.97 72.82 72.75 72.70 72.88 73.10 72.64 72.24 71.47 70.20 66.90 66.28 67.56 68.93 67.73 66.24 65.37 64.04 61.99 60.15 58.33 56.43 56.35 57.15 57.72 52.41 56.44 60.00 59.99 63.65 68.25 67.90 68.91 69.37 68.95 68.68
61.15 67.62 69.42 68.85 70.05 71.32 72.22 72.46 72.51 72.52 72.33 72.36 72.75 72.76 72.43 71.49 69.22 67.01 65.81 66.57 66.83 66.74 65.22 64.51 62.35 60.73 58.93 57.01 55.09 55.00 55.43 57.38 51.78 55.92 56.62 57.14 65.13 65.58 65.97 66.04 66.71 66.58 66.70
61.15 65.85 68.07 69.14 68.94 68.16 69.38 70.17 71.08 71.72 71.72 71.76 72.18 71.85 71.00 70.14 68.76 67.90 66.32 66.40 65.83 65.66 64.52 63.52 61.04 59.54 57.91 55.92 53.66 53.32 55.04 56.74 48.26 53.28 55.73 55.60 63.06 63.63 63.29 63.60 64.29 64.70 64.91
60.80 62.15 65.26 66.31 67.63 67.80 68.28 66.97 67.95 69.25 69.87 70.20 70.13 68.97 67.32 66.45 66.60 65.62 64.51 65.63 65.50 64.98 63.84 62.20 60.18 59.00 57.37 54.54 51.63 50.99 52.95 52.66 45.80 50.08 51.96 54.66 60.89 61.52 61.17 61.18 62.00 62.56 62.98
58.73 62.03 62.30 64.94 65.68 66.91 66.80 66.20 65.18 66.46 67.36 67.44 67.06 64.95 63.27 63.06 62.71 62.36 61.99 64.23 65.33 64.24 63.09 61.28 59.80 58.28 55.86 52.31 49.84 50.15 51.10 42.82 43.82 46.80 49.27 56.20 56.93 58.61 59.27 59.96 60.24 60.97 61.57
54.72 58.09 62.08 62.51 64.43 65.67 67.92 66.64 65.62 67.33 66.89 66.33 65.98 63.82 63.75 61.33 60.82 60.86 59.42 61.76 63.32 62.92 62.57 60.85 59.31 56.98 51.68 43.31 42.14 48.02 42.22 42.07 41.79 44.91 48.18 55.05 55.96 56.64 58.10 58.41 59.22 60.28 61.23
53.62 56.51 60.56 62.27 62.77 64.28 65.68 64.48 66.10 67.40 66.06 66.05 65.39 63.57 63.01 62.22 60.16 58.30 56.98 57.71 57.37 57.79 56.23 56.85 54.01 49.06 46.73 43.90 41.52 41.26 41.30 41.12 40.76 43.45 49.09 53.49 55.73 56.70 57.37 58.62 60.14 60.58 60.04
49.10 54.93 58.10 61.42 62.01 62.35 63.89 62.77 64.60 65.97 64.27 63.19 65.21 63.55 63.10 62.33 60.05 56.75 54.73 54.54 54.18 52.89 51.78 49.74 48.16 45.38 42.71 42.37 41.91 41.08 40.68 40.16 40.18 42.93 47.49 53.43 55.53 56.20 57.51 59.11 59.00 59.55 60.25
48.00 49.04 55.11 59.11 61.39 62.29 61.80 61.51 61.24 63.45 63.52 63.18 61.89 64.05 63.60 62.31 59.11 55.84 53.58 53.94 52.53 51.29 50.12 47.99 45.92 42.34 41.66 41.43 41.40 40.88 40.47 40.30 40.50 43.41 43.81 53.13 55.88 56.64 57.71 58.41 59.37 59.93 60.25
46.30 46.83 48.67 56.51 59.98 60.54 61.27 60.61 60.44 60.56 60.82 61.04 60.94 61.22 62.25 62.67 58.71 55.87 53.56 53.64 52.55 51.48 49.26 46.89 43.20 41.30 40.44 40.20 40.51 40.58 40.15 40.20 41.09 42.13 44.54 49.00 55.46 57.01 56.64 57.45 58.95 59.81 60.02
44.43 45.30 46.49 48.50 56.65 58.42 59.28 59.88 59.63 59.85 59.92 59.77 60.25 60.11 59.58 59.41 57.70 55.58 52.81 52.63 53.18 50.77 47.97 43.86 41.78 40.85 39.39 39.88 38.97 39.60 39.88 40.15 40.10 40.97 43.89 46.13 48.63 53.97 56.15 56.86 56.86 58.45 59.94
42.69 43.80 45.39 47.75 49.67 56.76 57.20 58.19 59.35 59.08 58.72 58.74 59.45 60.46 58.98 58.45 57.08 54.31 52.16 51.02 50.98 48.84 45.50 42.13 40.59 39.35 38.33 37.86 36.82 37.20 38.32 39.32 39.55 40.30 41.05 44.06 44.35 45.77 50.93 54.16 56.00 58.01 58.84
41.17 42.15 43.53 45.44 47.12 52.21 55.71 56.18 56.73 57.58 57.54 57.39 58.05 59.18 58.95 57.22 55.29 53.60 51.87 50.11 49.08 45.82 42.42 41.70 38.45 38.31 36.27 36.10 36.71 35.91 37.01 37.38 38.15 40.02 39.11 39.36 39.32 42.88 43.51 49.19 49.91 51.03 53.51
40.25 40.99 42.04 43.96 45.70 49.30 51.87 53.02 53.67 54.73 56.44 57.28 57.33 58.18 57.67 57.16 54.64 52.26 50.42 48.97 46.64 43.06 40.24 39.35 38.41 37.09 36.39 36.04 38.68 37.32 36.22 36.71 36.59 36.52 37.54 38.48 37.51 39.46 41.23 41.09 40.53 43.60 51.21
39.76 39.98 40.32 41.24 42.69 45.08 47.66 48.94 50.10 50.68 51.62 54.04 55.69 55.84 55.97 55.86 55.06 50.86 48.85 47.56 44.17 42.94 40.55 39.06 37.37 36.81 35.83 34.93 34.79 33.86 34.01 35.37 35.51 35.57 35.90 35.46 36.35 37.25 37.18 37.82 38.69 41.05 43.91
38.33 38.75 39.43 39.82 40.37 41.80 44.22 45.62 46.37 45.07 45.59 49.26 50.35 52.59 53.66 53.47 53.04 51.11 47.82 45.82 42.92 40.04 38.83 38.29 37.75 35.76 35.96 35.58 33.75 31.75 30.09 32.31 33.75 35.41 34.98 35.19 34.51 35.50 36.07 37.57 37.18 39.92 41.80
36.77 36.22 38.58 39.19 39.61 39.64 40.48 41.81 42.65 43.01 42.89 43.11 46.17 47.44 47.16 50.32 50.81 49.79 48.00 45.62 43.17 41.90 39.83 38.65 37.24 36.83 35.20 34.96 35.12 34.63 29.41 29.57 29.79 32.66 33.36 33.71 33.59 33.13 33.86 35.02 36.35 37.86 40.81
35.35 35.92 37.31 38.72 39.04 39.46 39.17 38.27 37.03 37.03 36.71 38.48 39.64 39.83 41.04 43.35 46.88 48.15 47.69 45.86 43.42 41.53 40.37 38.36 38.19 36.89 35.13 33.14 33.56 37.15 34.87 33.53 29.75 28.67 31.68 32.22 32.59 33.22 32.54 32.90 34.39 36.06 39.22
35.46 34.18 34.90 37.31 37.88 38.15 38.17 37.74 36.96 35.78 35.79 35.90 36.74 36.61 37.53 39.02 40.96 43.16 44.13 45.55 43.72 42.10 40.48 39.28 38.86 36.10 35.23 34.56 34.38 32.37 32.30 32.53 32.48 29.53 27.20 28.82 30.69 31.59 32.86 32.86 33.28 34.01 37.37
34.96 33.78 33.47 34.45 35.40 36.57 36.39 35.95 35.62 35.16 35.46 35.25 35.23 35.12 35.72 36.03 36.91 37.20 38.19 39.48 40.74 41.98 39.97 39.12 38.66 37.94 38.32 35.51 34.29 33.42 33.29 33.06 31.19 31.18 28.33 27.36 27.88 29.33 30.85 32.69 32.98 34.15 35.30

GFSSE_sfc_wetblb_021.txt.gz
Wetbulb
63.61 65.88 72.72 73.73 73.30 73.23 73.22 73.39 73.16 73.28 72.60 72.18 72.08 72.07 72.45 72.20 72.47 72.95 72.49 72.30 72.19 72.16 72.07 71.32 69.53 69.32 68.72 68.24 68.06 68.47 68.98 69.30 70.15 71.91 72.28 72.42 72.72 72.08 71.92 71.86 71.94 71.56 72.90
64.13 67.01 71.87 73.30 73.71 73.75 73.63 73.70 73.40 72.99 72.19 71.87 71.49 71.26 71.29 71.33 70.94 71.18 71.59 72.27 72.57 71.89 70.71 70.36 69.29 68.58 67.57 66.94 66.67 66.61 66.71 66.53 66.09 66.87 70.21 71.05 71.36 70.61 70.70 71.33 71.92 71.27 72.52
64.84 68.04 71.18 72.53 73.46 73.83 73.98 73.87 73.19 72.73 71.91 71.78 71.33 70.89 70.49 70.33 70.30 70.79 71.79 72.58 71.94 70.98 70.03 69.67 68.80 67.71 66.47 65.54 65.21 65.02 64.59 64.21 64.69 66.64 66.59 67.48 67.64 70.15 70.01 70.50 70.92 70.98 71.16
65.90 68.16 70.64 71.45 73.14 73.72 73.62 73.62 73.09 72.54 72.08 71.54 71.41 71.12 71.03 71.36 71.06 70.56 71.55 72.00 71.65 71.16 70.76 69.29 67.87 66.53 64.80 63.90 63.13 62.44 62.41 62.75 64.09 65.11 63.55 65.79 68.92 70.05 70.23 70.02 69.90 69.98 69.93
66.03 68.10 70.02 71.14 73.07 73.60 73.45 73.38 73.13 72.87 72.74 71.96 71.51 71.21 71.58 71.63 71.54 71.17 71.23 71.56 71.22 70.30 69.70 68.01 66.57 64.84 63.00 61.73 60.70 60.26 61.46 61.78 62.95 65.53 65.45 66.40 67.72 69.98 70.03 70.11 69.27 69.39 69.47
65.13 67.21 68.92 71.40 73.05 73.48 73.34 73.19 72.90 72.51 72.35 72.13 71.60 71.77 72.18 71.75 71.14 71.29 71.33 70.51 69.80 69.71 68.27 66.92 65.30 63.06 60.97 59.43 58.53 59.91 61.14 62.22 63.81 61.40 62.23 65.74 66.64 70.23 68.92 69.07 68.95 69.10 69.21
64.36 66.31 67.66 70.84 72.35 72.98 73.17 73.09 72.91 72.76 72.36 72.29 72.35 72.39 71.86 71.17 70.18 69.40 69.10 69.75 69.64 68.60 66.54 65.48 63.75 61.52 59.47 57.47 57.57 58.74 59.46 61.57 58.47 57.99 58.63 61.01 64.21 68.60 69.00 69.17 69.30 69.27 68.54
63.93 65.14 67.21 68.06 69.92 71.39 72.31 72.53 72.50 72.54 72.49 72.49 72.79 72.55 72.40 71.59 70.02 67.67 66.67 68.45 67.97 66.81 65.46 64.61 62.61 60.33 58.13 56.13 56.40 58.62 58.05 59.73 56.71 55.63 56.11 58.22 65.97 66.53 65.89 65.69 66.50 66.88 67.01
61.94 64.31 65.86 67.94 68.50 67.74 69.45 70.05 70.88 71.48 71.56 71.66 71.84 71.95 71.45 70.64 70.00 67.49 67.59 67.05 67.06 66.74 65.40 64.57 61.73 59.35 57.10 54.61 55.33 56.78 57.86 57.92 52.39 53.53 55.91 56.26 64.51 64.11 64.26 63.94 64.62 64.02 64.74
58.00 63.60 64.46 66.01 69.06 68.91 68.47 66.46 67.45 68.82 69.50 69.90 69.55 69.05 67.91 67.78 67.11 66.28 65.10 66.70 66.90 66.23 64.93 64.15 61.12 58.82 56.82 53.11 53.31 54.36 54.73 53.92 48.54 50.76 52.61 55.36 62.46 62.06 61.62 62.03 62.73 63.32 63.57
56.16 58.86 62.72 64.28 66.01 67.66 68.95 67.24 65.12 66.41 67.20 67.19 66.87 65.73 65.57 65.30 65.13 63.15 62.62 64.66 66.63 66.29 65.16 63.97 60.86 58.84 56.18 51.79 51.30 52.30 48.44 44.70 45.30 46.18 49.82 56.82 58.53 59.57 59.58 60.08 60.46 61.15 61.81
50.02 54.29 58.52 61.86 63.77 65.32 67.54 66.90 67.69 68.31 67.97 68.50 68.03 67.54 66.06 64.11 63.68 62.34 60.29 62.25 64.30 64.23 64.83 63.53 60.80 58.61 50.39 40.80 40.56 45.71 40.10 41.18 42.86 43.17 46.19 55.66 56.72 57.17 58.79 59.17 59.41 59.97 60.63
42.82 45.37 47.28 58.33 61.45 63.23 66.50 67.17 66.80 67.21 66.84 66.16 66.29 66.30 64.85 62.49 61.79 61.03 60.62 60.95 59.11 59.09 58.21 58.78 55.52 49.92 43.22 39.32 39.41 39.35 39.02 39.06 40.86 41.46 46.64 53.18 56.46 57.40 57.93 58.55 59.20 60.23 60.74
41.35 42.37 43.42 44.50 58.34 61.38 62.65 64.99 65.82 66.00 66.37 65.64 65.02 63.46 62.83 61.86 61.07 60.06 59.53 59.25 58.92 57.39 54.59 52.38 50.29 48.16 44.14 41.59 40.40 39.34 38.71 38.47 39.75 40.74 43.76 52.73 55.36 57.48 58.41 58.99 60.38 60.67 60.29
40.25 41.25 42.27 43.23 48.85 59.71 61.16 61.12 61.62 64.72 65.92 65.21 64.60 63.41 61.05 59.92 60.69 59.59 58.82 57.98 57.66 55.79 54.29 50.49 48.74 47.06 42.41 39.94 39.43 38.89 38.39 38.26 38.82 41.24 41.28 50.66 54.74 57.56 58.46 59.76 60.28 60.36 60.79
40.06 40.35 42.09 44.08 46.33 54.20 59.89 59.66 60.16 64.05 64.53 63.66 62.93 62.15 60.27 59.88 59.05 59.48 57.70 56.89 56.11 55.22 52.68 50.12 48.39 45.88 40.87 38.65 38.72 38.53 38.11 37.97 38.33 40.75 41.78 45.50 54.66 56.92 58.51 59.49 60.07 60.80 61.35
38.71 39.90 41.52 45.19 48.88 52.59 57.63 58.45 58.89 59.26 60.45 60.56 60.03 59.79 60.26 61.40 60.86 58.98 57.51 55.80 55.47 53.90 51.96 50.01 46.23 42.43 39.48 38.19 37.35 37.56 37.51 37.67 38.12 38.72 42.17 43.56 47.64 52.13 56.51 57.78 59.01 60.50 61.54
37.90 38.61 40.96 43.95 47.12 52.96 55.55 56.93 57.85 57.99 58.37 58.56 60.71 60.75 60.62 60.63 60.00 57.72 56.38 55.44 55.48 53.48 51.86 49.59 46.24 41.83 39.59 37.15 35.82 35.80 35.80 36.80 37.61 37.77 39.42 42.13 44.60 46.29 49.75 54.77 56.15 58.01 60.42
37.02 37.99 39.38 41.46 42.95 48.99 52.67 53.98 54.53 55.10 57.50 57.87 58.87 59.23 59.41 59.08 58.50 57.22 55.97 55.72 53.96 52.00 50.59 48.51 44.12 43.47 39.24 36.86 36.17 35.12 34.68 35.23 36.38 37.98 37.24 39.17 41.87 43.38 44.20 48.34 51.66 51.00 54.17
36.76 37.84 38.49 39.95 40.37 44.38 48.78 48.70 48.35 49.54 52.71 52.10 51.17 52.86 55.16 56.78 55.45 55.11 54.61 53.40 52.33 50.93 48.90 46.63 44.38 40.28 39.12 37.35 37.50 35.99 33.70 34.45 35.16 34.78 35.46 37.44 38.18 38.30 40.84 42.21 42.68 43.73 49.72
36.58 37.06 37.23 37.48 37.91 39.46 42.81 44.65 44.50 42.94 45.34 43.76 44.11 44.29 48.29 50.79 53.57 52.54 51.31 50.89 49.72 49.84 47.98 45.48 41.65 41.02 39.26 37.50 35.18 34.04 33.82 34.32 34.29 34.59 34.16 34.77 35.44 36.18 36.76 39.27 39.87 40.51 42.41
34.23 35.42 36.20 36.68 36.94 37.50 38.46 39.24 40.69 40.22 39.73 38.87 39.46 39.33 39.71 40.61 42.94 47.31 47.60 46.99 46.83 46.32 44.97 43.57 41.50 40.18 39.04 37.79 36.69 33.36 31.73 33.21 33.05 33.97 33.64 34.28 33.97 34.31 34.85 35.88 36.41 37.91 39.15
32.04 32.75 34.64 35.10 35.98 36.52 37.47 37.67 37.55 37.47 36.80 36.55 36.32 36.57 36.89 37.50 37.64 38.66 39.85 42.38 42.69 43.23 43.35 42.81 40.98 39.83 39.20 37.69 36.81 37.32 33.18 29.33 28.73 31.53 31.84 32.49 32.77 32.55 32.82 33.78 34.89 35.94 36.76
30.42 31.73 33.16 33.84 34.17 35.32 36.15 35.94 34.80 33.52 32.54 33.45 34.08 34.43 34.77 34.89 34.83 36.01 36.38 36.90 37.70 39.85 40.84 40.59 40.94 39.62 38.26 37.44 36.96 36.97 35.14 34.50 31.87 31.27 31.42 31.34 31.79 33.05 32.18 32.49 33.18 34.04 35.23
30.22 29.24 29.81 31.76 31.73 32.03 32.50 32.96 31.98 31.08 31.30 31.03 31.08 30.87 31.75 32.27 32.45 32.76 33.59 34.43 34.58 35.40 35.16 36.23 38.51 39.07 38.53 37.08 36.83 36.00 34.38 34.24 33.09 32.23 32.09 29.87 30.69 31.40 32.30 32.95 33.14 33.13 34.05
29.12 28.91 29.14 30.06 29.75 30.06 30.33 29.94 29.43 28.77 28.70 28.79 28.74 28.59 29.32 30.21 30.69 30.88 31.34 31.19 31.55 31.99 32.70 33.65 34.33 35.08 36.13 37.62 37.27 36.27 35.08 34.45 33.41 32.66 31.28 30.71 30.80 31.11 30.50 31.14 31.22 33.48 33.89

GFSSE_sfc_wetblb_024.txt.gz
Wetbulb
63.50 65.33 72.79 73.81 73.45 73.47 73.75 73.54 73.06 73.29 72.73 72.34 72.34 72.82 72.70 72.89 72.70 72.52 72.54 72.02 72.09 72.32 71.42 70.29 70.01 69.17 68.53 68.51 68.96 69.56 69.89 69.73 70.61 71.88 71.98 72.34 71.82 71.68 71.86 72.10 72.17 71.29 72.85
64.03 65.80 71.89 73.40 73.76 73.57 73.77 73.74 73.30 73.10 72.48 71.97 71.91 72.12 71.87 71.51 71.80 72.06 72.31 72.19 72.29 71.36 70.53 69.71 69.42 68.64 67.47 67.09 66.92 67.32 67.29 66.58 67.39 69.07 70.08 70.12 71.32 70.55 70.82 71.38 71.95 70.67 72.30
64.31 66.55 71.09 72.68 73.49 73.60 73.59 73.66 73.15 72.79 72.05 71.69 71.25 70.87 70.72 70.65 70.65 71.01 71.84 72.36 71.63 70.72 69.92 69.06 68.74 67.66 66.27 65.60 65.18 64.93 64.95 65.07 67.12 67.25 69.11 67.21 67.36 70.28 70.35 70.50 70.77 70.45 70.57
64.75 68.02 70.37 71.47 73.25 73.65 73.79 73.68 72.99 72.50 72.13 71.57 71.12 70.78 70.69 70.96 70.52 71.09 72.05 71.92 71.42 70.89 70.96 69.16 67.77 66.10 64.84 63.87 63.07 62.72 63.31 64.14 65.86 66.09 64.34 66.95 68.25 70.50 70.39 70.08 69.81 69.67 69.72
64.55 67.43 69.64 71.07 73.06 73.58 73.36 73.49 73.01 72.66 72.40 71.59 71.25 71.03 71.24 71.36 71.32 70.70 71.26 71.35 70.79 70.30 70.12 68.15 66.72 64.72 63.20 61.82 61.06 61.91 62.24 63.92 66.56 65.73 65.24 65.89 66.53 69.86 70.36 69.66 69.17 69.21 69.25
63.59 66.39 68.84 71.35 73.05 73.45 73.22 73.35 72.91 72.24 72.15 72.02 71.56 71.31 71.74 71.79 71.23 71.31 71.35 71.09 70.20 69.63 68.92 67.28 65.42 63.32 61.55 59.93 60.00 60.86 61.82 65.34 63.71 61.18 62.42 65.24 66.38 70.09 69.28 68.98 69.03 69.00 69.16
63.00 65.30 67.14 70.75 72.28 72.99 73.09 73.05 72.98 72.57 72.42 72.35 71.77 71.84 72.22 71.38 70.86 70.88 70.62 69.55 69.35 68.59 66.97 66.18 64.32 62.15 60.00 58.16 58.77 59.80 62.03 63.16 58.07 58.05 59.45 61.48 64.49 68.26 68.39 68.70 69.12 68.98 68.56
62.22 64.72 66.35 67.69 69.83 71.34 72.18 72.52 72.55 72.62 72.51 72.34 72.33 72.26 72.03 71.28 70.10 68.94 68.65 68.61 68.53 68.79 66.13 64.27 63.30 61.01 58.82 56.66 58.14 59.01 60.56 60.12 56.72 55.86 56.52 58.54 65.88 66.89 66.23 65.94 66.15 66.52 66.70
61.25 63.17 64.27 66.09 67.48 67.58 69.51 70.12 71.02 71.49 71.61 71.57 71.42 71.44 70.97 70.54 70.23 68.32 67.98 68.08 66.67 67.10 65.44 64.12 62.52 60.12 58.02 55.45 56.68 57.80 59.28 57.82 52.86 53.89 55.85 56.22 63.79 64.26 64.56 64.68 65.19 65.12 63.93
56.83 60.72 62.36 63.97 68.27 69.19 68.40 66.30 67.59 69.00 69.67 69.97 69.56 68.81 67.41 67.87 67.98 66.46 65.37 66.82 66.80 66.10 64.75 63.64 61.78 59.47 57.62 54.32 54.60 54.94 55.39 53.58 49.14 50.91 52.54 55.05 62.67 62.17 61.70 61.94 62.76 63.38 63.62
51.20 55.41 59.23 62.33 66.59 67.33 68.14 67.28 64.42 66.07 66.93 66.96 66.69 65.63 65.34 65.45 66.36 64.28 62.75 65.01 66.82 66.28 65.02 63.95 61.20 59.12 56.27 51.86 53.09 51.90 48.45 44.40 44.39 45.81 48.98 57.13 58.99 60.01 59.83 60.16 60.51 61.05 61.65
41.82 44.74 46.69 55.01 62.41 65.93 67.07 67.38 67.60 68.46 66.68 66.17 66.66 67.12 66.83 66.33 64.53 63.46 61.12 62.39 64.44 64.12 64.88 64.01 61.02 57.17 48.93 39.02 38.70 44.07 39.01 40.33 41.88 42.15 44.04 55.45 57.87 57.86 58.95 59.36 59.36 59.95 60.47
39.99 41.84 43.12 43.94 48.71 63.42 65.83 66.78 66.89 67.48 67.25 66.69 67.17 66.98 66.09 64.61 62.63 61.94 61.39 61.37 61.49 59.91 59.69 58.29 53.72 49.97 43.95 39.20 38.80 38.41 38.13 38.18 39.29 40.21 43.89 53.23 56.04 58.43 58.75 58.92 59.23 59.84 60.67
39.28 40.63 42.04 42.98 43.87 54.29 64.61 65.60 65.92 65.97 66.18 65.54 65.27 64.69 64.18 62.79 61.84 60.84 60.53 60.21 59.95 58.96 57.52 55.73 52.72 48.82 45.21 41.28 39.75 38.41 37.76 37.50 38.18 39.76 41.80 50.29 54.36 57.49 59.13 59.36 59.85 60.71 60.83
38.40 39.67 41.17 42.36 44.55 47.44 59.07 63.54 63.87 64.32 65.19 65.52 65.04 64.15 63.18 62.09 61.35 60.62 60.11 59.29 58.93 57.44 56.74 54.75 51.25 48.62 45.59 40.94 38.92 38.35 37.62 37.23 37.21 39.17 40.19 47.13 53.72 56.84 59.20 59.72 60.57 60.57 60.69
38.81 39.24 41.01 43.25 46.54 49.60 55.85 60.41 61.54 63.64 63.94 63.91 63.64 63.09 62.61 61.86 59.10 58.97 58.56 56.37 57.72 57.03 55.61 53.77 51.56 48.17 45.19 39.91 38.89 38.19 37.59 37.14 37.32 38.04 40.47 41.95 50.84 55.59 58.05 59.99 60.29 60.75 61.27
37.56 38.73 40.10 43.88 47.61 52.68 56.89 58.90 59.47 61.87 61.99 61.79 61.62 61.32 61.01 61.15 59.61 59.51 58.47 57.41 57.36 55.89 54.05 52.04 49.76 47.04 44.32 39.67 37.95 37.33 36.97 36.95 37.07 37.48 38.63 41.37 44.20 50.28 54.22 58.24 59.08 60.38 61.29
36.54 37.47 39.53 42.19 44.73 52.90 55.81 57.16 57.85 58.81 59.10 59.31 60.08 60.61 60.38 60.66 60.55 58.74 57.69 56.44 56.03 54.47 53.20 51.44 49.06 46.82 44.90 42.09 38.99 36.78 35.60 35.79 36.55 36.91 37.04 38.92 41.97 44.45 48.23 53.28 55.95 57.18 59.12
35.67 36.68 38.12 39.63 40.53 47.51 50.27 52.35 53.26 51.28 49.41 48.76 49.78 52.32 55.43 56.03 57.02 57.24 55.68 54.79 54.61 52.96 51.51 49.85 46.61 45.83 44.83 42.96 40.75 38.80 35.47 34.76 35.33 37.05 35.95 36.70 38.25 42.33 42.51 47.28 51.13 51.48 54.17
35.19 36.16 37.14 38.54 38.76 41.84 47.27 47.57 46.15 44.19 42.89 42.93 42.10 43.10 44.86 47.04 50.87 52.61 52.60 51.87 52.17 51.33 49.65 48.39 46.47 43.09 41.40 40.59 39.80 38.79 35.75 35.08 34.85 34.83 35.07 36.18 36.34 37.78 38.15 39.90 41.27 43.31 49.20
34.29 34.88 35.44 36.37 36.84 39.03 40.98 41.88 41.55 37.75 40.02 39.16 38.74 38.89 39.87 40.73 43.00 45.19 46.81 46.72 47.89 47.33 46.70 45.69 43.51 42.81 41.85 38.87 39.00 39.67 38.12 36.25 34.54 34.60 34.44 34.24 34.62 35.52 35.53 36.44 38.27 38.96 40.68
31.70 32.59 34.06 35.16 35.70 36.95 37.30 37.36 37.73 37.02 36.94 37.38 36.89 35.68 36.11 36.93 37.74 38.70 40.04 41.60 42.26 43.11 41.68 41.43 40.52 40.07 39.74 38.67 38.22 35.80 34.68 35.31 33.80 33.45 33.04 34.03 33.65 33.62 34.17 34.90 34.64 35.87 36.75
29.58 29.84 32.33 33.41 34.58 35.54 36.31 36.87 36.13 35.62 34.42 33.63 32.66 32.29 32.35 33.45 34.49 35.80 35.97 36.57 37.07 38.19 38.54 39.36 40.10 39.10 38.81 38.54 37.50 37.58 35.52 33.41 31.32 33.18 32.87 32.48 32.67 32.72 33.37 33.40 34.04 34.50 35.07
28.68 29.25 30.17 31.30 32.36 33.36 34.13 33.44 31.97 30.80 29.21 29.35 29.37 30.24 30.95 31.44 31.57 32.18 32.70 33.12 33.95 34.62 34.25 35.58 38.06 37.07 36.10 35.30 37.91 37.33 35.68 34.87 32.78 30.22 32.41 34.10 32.09 32.50 32.43 32.46 33.01 33.56 34.15
28.44 27.45 27.68 29.17 29.75 30.15 30.44 31.03 30.46 28.77 28.62 28.11 28.06 28.56 28.67 29.49 30.04 30.36 30.44 30.41 30.55 31.13 31.39 32.06 33.26 34.32 35.62 34.71 34.72 35.90 35.09 34.60 34.22 32.16 31.03 31.07 33.13 33.66 32.67 32.48 32.72 32.52 33.39
27.50 27.35 27.26 27.81 27.79 28.42 28.77 28.42 27.91 27.10 26.47 26.97 26.35 26.66 26.90 27.52 28.10 28.15 28.87 28.53 28.84 28.87 28.87 29.59 29.44 30.46 30.70 32.09 32.67 33.63 33.58 34.24 33.88 33.67 32.66 34.03 33.34 33.97 31.89 32.27 31.55 32.03 32.58

GFSSE_sfc_wetblb_027.txt.gz
Wetbulb
66.11 67.90 72.72 74.19 73.80 74.04 73.45 73.30 73.26 73.42 73.20 72.82 73.06 73.10 73.00 72.64 72.48 72.60 72.53 72.11 73.15 71.77 71.03 70.28 69.59 68.95 68.67 69.26 69.83 70.22 69.65 70.32 71.28 71.41 71.77 71.90 71.36 71.81 72.23 72.31 72.09 72.41 72.69
66.11 67.71 71.85 73.65 73.90 73.86 73.90 73.26 73.13 73.22 73.07 72.36 72.48 72.30 72.31 72.55 72.61 72.77 72.37 72.54 72.18 71.02 69.98 69.89 69.27 67.98 67.38 66.96 67.02 67.44 67.08 67.77 69.13 70.23 69.91 70.53 71.28 70.65 70.93 71.42 71.18 70.94 71.98
65.94 68.03 72.23 72.83 73.74 73.80 73.79 73.65 73.23 73.15 72.59 71.89 71.68 71.48 71.12 70.87 70.95 71.51 72.28 72.35 71.36 70.76 69.92 69.05 68.27 67.08 66.05 65.36 65.05 65.30 65.64 67.22 67.68 69.18 69.46 69.99 70.20 70.77 70.63 70.38 70.45 70.23 70.57
66.24 68.45 71.78 71.55 73.37 73.60 73.54 73.43 72.99 72.88 72.67 71.74 71.28 71.05 70.91 70.69 70.94 72.23 72.07 71.89 71.38 71.26 70.62 68.92 67.43 65.79 64.51 63.52 63.33 63.87 64.25 66.30 67.51 67.02 69.68 70.00 70.07 70.58 70.52 70.09 69.73 69.59 69.54
66.42 68.82 71.15 71.19 73.23 73.58 73.58 73.46 72.92 72.73 72.56 71.74 71.30 71.20 71.51 71.43 70.85 71.17 71.72 71.22 70.90 70.26 70.06 68.31 66.69 64.55 62.90 61.69 61.93 62.93 63.68 67.03 66.61 68.30 69.50 69.89 70.80 70.34 69.87 69.39 69.21 69.18 69.41
66.07 68.86 70.15 71.42 73.17 73.47 73.26 73.35 72.90 72.26 71.95 71.71 71.29 71.09 71.66 71.67 71.18 71.15 71.43 71.15 70.39 69.68 68.82 67.78 65.76 63.70 61.62 60.40 60.92 61.65 64.78 65.82 64.65 67.02 67.79 68.06 70.44 69.56 69.86 69.10 68.96 69.09 69.09
65.63 67.58 69.49 70.70 72.34 73.11 73.28 73.14 73.07 72.61 72.38 72.29 71.74 71.39 71.95 71.43 71.09 71.18 70.62 69.71 69.46 69.02 66.19 65.84 64.75 62.82 60.39 59.02 60.64 61.26 64.11 62.97 63.83 64.56 65.12 66.64 68.17 68.13 68.12 68.65 68.54 68.61 68.28
65.15 66.68 67.98 67.49 69.51 71.36 72.33 72.37 72.38 72.62 72.61 72.46 72.25 72.15 71.80 71.20 70.52 70.21 69.50 68.70 68.70 68.32 66.63 64.75 63.40 61.64 59.34 57.96 59.47 60.48 61.65 60.08 60.71 61.75 62.42 63.58 66.17 66.95 66.84 66.30 66.48 65.96 65.74
63.56 65.78 66.92 68.39 68.64 66.56 69.11 69.78 70.59 71.23 71.33 71.26 71.45 71.33 70.66 70.51 70.28 68.97 68.02 68.44 67.18 67.07 65.94 64.67 62.82 60.68 58.63 56.60 57.48 58.95 58.87 57.50 58.84 59.21 59.37 61.47 64.46 64.42 64.49 64.67 65.24 65.60 64.88
52.44 57.22 63.07 66.24 67.74 69.36 70.90 65.87 67.37 68.90 69.58 69.70 69.36 68.49 67.21 67.52 68.06 66.58 65.43 66.93 66.77 66.35 65.09 64.30 62.14 60.17 57.84 54.90 55.47 53.85 53.29 52.84 54.12 55.53 57.32 59.39 61.96 62.45 61.83 61.96 62.69 63.50 63.81
47.05 47.49 48.78 52.98 64.79 67.30 68.59 68.01 64.75 65.54 66.92 67.19 67.12 65.51 66.11 69.79 69.33 65.38 63.59 65.50 66.81 66.29 65.05 63.90 61.71 59.35 54.72 50.48 51.56 50.42 48.62 50.06 50.32 50.83 52.79 57.18 59.80 60.27 60.40 60.71 60.84 61.28 61.83
43.99 45.42 46.40 47.38 49.03 58.68 66.89 68.12 68.04 69.14 68.96 69.59 69.62 69.00 67.77 67.82 66.80 64.99 62.01 62.88 64.43 64.26 65.21 63.60 61.07 56.29 50.72 46.23 46.56 46.74 46.46 46.55 48.46 48.55 49.70 54.47 57.39 59.29 59.12 59.67 59.59 59.85 60.52
42.16 44.43 45.47 46.41 47.75 49.31 62.62 67.13 67.74 68.43 68.36 69.31 69.29 68.44 67.39 66.05 64.72 63.88 62.92 63.06 63.50 60.66 61.90 60.11 56.72 55.42 51.05 47.58 46.94 46.36 45.70 45.95 47.17 47.74 47.48 52.25 55.10 57.62 59.32 59.69 59.64 60.15 60.98
41.81 43.34 44.62 45.79 47.51 50.16 55.29 65.16 66.87 67.03 67.11 66.66 66.13 66.02 65.94 64.63 63.88 63.28 61.97 62.12 61.66 61.12 59.86 58.09 56.17 54.83 51.51 47.40 46.21 45.82 45.19 45.53 46.09 47.08 47.67 48.49 53.85 56.83 59.11 59.84 59.88 60.66 60.85
40.88 42.09 43.58 45.01 48.19 50.95 53.90 63.73 65.01 65.43 66.00 66.19 66.43 65.15 64.41 63.69 62.91 62.24 62.15 62.09 61.63 60.06 58.94 57.32 54.89 52.91 53.02 48.83 45.94 45.04 44.66 44.70 44.74 45.40 47.29 46.84 51.15 55.93 58.33 60.21 60.83 60.88 60.94
40.14 41.11 42.75 45.28 50.01 53.26 55.13 61.92 63.10 64.12 64.39 63.88 63.25 63.16 62.99 63.03 62.01 61.51 60.44 59.84 59.86 61.09 60.27 56.86 54.54 52.89 50.75 49.33 46.79 44.79 44.41 44.48 44.20 44.37 45.32 47.21 48.90 52.43 56.03 59.80 61.15 61.05 61.30
39.32 40.36 41.90 45.82 49.84 57.23 60.01 61.34 61.96 61.36 60.83 60.04 60.25 59.57 60.50 61.31 61.07 60.33 60.29 59.54 58.25 58.19 57.13 55.57 53.50 51.88 49.06 46.38 46.65 45.00 44.24 43.91 43.99 43.90 44.42 45.40 47.43 48.50 51.20 55.89 58.79 60.00 61.36
38.54 39.44 41.62 43.76 49.31 54.36 56.01 55.00 52.33 51.01 50.32 50.72 51.50 53.16 54.38 55.70 57.53 57.53 57.13 56.42 56.26 55.41 54.44 52.79 50.57 49.77 48.99 47.63 47.69 45.98 44.76 43.33 43.22 43.19 43.54 43.92 45.00 46.45 48.37 50.43 53.92 56.19 57.49
37.39 38.43 40.45 42.49 45.17 49.54 48.38 46.93 45.79 45.25 44.76 44.73 45.01 46.33 47.84 50.15 52.97 53.12 52.71 52.98 53.74 52.38 51.24 50.64 48.18 47.68 47.30 46.43 44.75 44.87 44.27 44.40 44.09 42.52 43.10 42.92 43.49 45.01 46.30 46.82 48.31 49.44 52.27
36.52 37.67 39.03 41.15 42.21 46.94 46.40 44.87 43.77 42.26 41.43 41.11 40.90 41.54 42.83 44.11 47.16 48.27 47.78 48.42 50.04 49.29 48.85 49.51 48.11 46.21 44.01 42.58 42.09 42.13 43.51 43.34 44.36 43.70 42.61 41.87 42.18 42.31 43.18 43.56 45.23 46.36 46.80
35.71 36.41 37.06 38.94 39.63 42.88 43.19 42.95 40.76 38.66 38.68 37.72 37.77 38.32 39.54 40.52 41.32 42.82 44.36 44.67 46.09 45.12 44.52 44.55 46.18 45.40 44.51 43.26 43.30 45.82 45.29 43.18 42.43 42.54 41.98 41.64 41.86 41.52 41.64 42.22 43.03 43.91 44.60
33.14 33.80 35.42 36.85 38.18 40.04 40.29 39.82 39.42 37.61 36.09 35.52 35.66 35.10 35.86 37.08 37.89 38.66 39.40 39.38 40.28 41.29 41.45 41.83 42.17 43.39 43.16 41.52 41.27 41.28 40.94 43.86 41.76 42.01 41.11 40.72 40.86 40.82 41.26 41.37 41.27 41.36 42.32
31.34 30.98 32.53 34.02 35.76 37.30 38.89 38.58 37.36 36.61 35.56 34.05 33.22 33.01 33.28 34.11 34.62 35.36 35.38 36.27 36.61 37.61 37.59 38.72 40.13 40.09 39.88 41.63 40.57 39.53 39.78 38.10 37.66 41.77 41.66 40.29 40.42 40.49 40.88 40.46 40.59 40.76 41.36
30.05 30.73 31.13 31.87 32.68 33.56 34.82 34.52 33.76 32.51 30.55 30.76 31.03 31.80 31.97 32.45 32.56 32.98 33.28 33.33 33.69 34.12 33.54 35.30 36.16 37.43 39.36 36.87 40.35 39.76 39.77 38.06 35.96 36.11 40.23 41.82 40.66 41.19 41.46 41.75 41.13 41.13 41.08
29.77 29.41 29.74 30.83 31.02 31.47 32.06 32.82 31.71 30.12 30.52 30.60 30.65 30.63 30.56 30.86 31.14 31.16 31.44 31.51 31.50 31.93 31.71 31.63 32.05 32.27 34.13 34.00 35.13 36.56 37.72 38.09 37.47 35.47 34.48 36.91 39.74 41.19 41.75 40.92 40.89 40.66 40.44
29.23 29.47 29.67 29.69 29.18 30.07 30.76 30.71 30.69 29.89 29.45 29.44 29.23 29.09 29.08 29.26 29.39 29.29 29.55 29.73 29.82 29.74 29.62 29.78 30.43 30.15 30.38 30.91 31.47 32.38 32.88 33.15 32.67 33.15 32.48 32.92 33.51 37.04 38.95 40.18 40.59 40.76 41.08

GFSSE_sfc_wetblb_030.txt.gz
Wetbulb
68.42 71.77 72.80 74.46 73.93 73.54 73.53 73.15 72.95 73.01 73.55 73.22 73.23 72.85 72.61 72.48 72.34 72.38 72.40 72.55 71.77 70.91 70.52 69.88 69.07 68.71 68.74 69.37 69.82 69.26 69.69 70.70 70.80 71.20 71.33 71.33 71.33 71.76 71.75 71.43 71.93 72.16 72.76
69.12 71.55 72.04 73.95 74.05 73.66 73.33 73.30 73.30 73.21 73.29 72.87 72.71 72.79 72.88 72.87 72.91 72.37 72.26 72.36 71.15 70.41 70.22 69.36 68.53 67.53 66.99 66.79 67.12 67.34 67.97 69.00 69.85 69.76 70.18 71.05 71.34 70.66 70.78 70.77 71.18 71.46 71.71
68.56 71.19 73.03 73.00 73.96 74.06 73.67 73.30 73.12 73.20 72.47 72.35 72.09 71.45 71.26 71.25 71.28 72.21 71.88 71.66 71.18 70.40 69.88 68.72 67.53 66.49 65.57 65.11 65.30 65.82 66.83 68.02 68.32 69.17 69.73 70.41 70.64 70.76 70.37 69.91 70.04 70.14 70.34
68.70 71.10 72.94 71.91 73.52 73.68 73.63 73.26 73.09 72.93 72.20 71.54 71.12 70.86 70.68 70.89 72.10 72.39 71.79 71.56 71.24 70.47 69.89 68.78 66.95 65.35 63.79 63.33 64.02 64.45 65.98 68.06 68.05 68.11 70.02 69.73 70.28 70.50 70.06 69.79 69.65 69.32 69.25
68.91 70.92 72.51 71.60 73.38 73.66 73.61 73.18 72.87 72.89 72.54 71.62 71.30 71.18 71.22 70.80 71.10 71.89 71.47 71.30 70.66 69.91 69.25 68.12 66.48 64.54 62.61 62.18 62.15 63.29 65.92 67.18 67.17 69.03 69.04 69.46 70.10 69.72 69.44 68.90 69.13 68.82 68.83
68.95 70.35 70.83 71.68 73.40 73.57 73.39 72.96 72.37 72.19 72.05 71.74 71.41 71.39 71.69 71.41 70.83 71.27 71.22 70.81 69.89 68.11 67.75 66.83 65.85 63.49 61.14 61.14 61.71 63.44 65.43 65.61 66.54 68.18 68.32 68.35 70.12 69.64 69.78 69.37 68.75 68.69 68.78
68.33 70.04 71.43 70.99 72.58 73.15 73.24 72.89 72.88 72.33 72.04 71.93 71.47 71.27 71.93 71.27 71.26 71.09 70.52 69.86 68.92 67.67 66.00 65.56 64.34 62.53 59.73 60.49 61.08 62.60 63.52 63.03 65.30 66.67 67.48 67.67 68.20 68.15 68.14 67.75 67.79 67.34 67.12
68.17 69.43 70.27 68.38 69.77 71.55 72.37 72.42 72.35 72.48 72.69 72.56 71.98 71.45 71.09 70.94 70.67 70.37 69.55 68.54 68.19 67.23 66.13 65.30 63.41 61.58 58.53 59.04 60.05 61.33 60.69 60.32 62.55 64.26 65.81 66.61 65.62 66.19 66.40 66.30 66.28 65.89 65.37
65.28 68.46 69.85 70.69 70.00 66.76 69.52 70.17 70.63 71.28 71.48 71.51 71.60 71.43 71.10 70.44 70.24 69.04 67.90 68.12 67.62 66.85 65.77 64.66 62.65 60.86 57.76 57.63 57.79 58.11 57.34 57.16 61.00 62.35 62.31 63.96 63.72 63.77 63.28 63.47 64.46 65.00 64.97
55.56 57.43 59.24 66.35 68.94 69.27 71.72 65.97 66.39 68.86 69.65 69.92 69.69 69.03 68.16 67.90 68.33 66.63 65.78 67.25 67.29 66.34 65.22 63.97 61.91 59.96 56.96 55.81 54.91 53.46 53.22 55.82 57.41 58.40 60.32 60.56 61.14 62.05 61.49 61.65 61.76 62.41 63.07
53.02 53.60 54.79 56.53 61.10 64.16 68.18 68.13 65.74 65.07 66.55 67.13 67.55 65.81 65.83 70.49 70.20 67.69 64.78 65.88 66.90 66.39 65.23 63.57 61.71 58.72 53.75 50.20 51.22 50.30 51.97 53.51 53.79 54.41 55.02 55.94 59.28 60.40 60.05 60.45 60.43 60.80 61.43
50.65 51.59 52.68 54.09 55.68 59.72 65.55 68.27 69.19 69.59 70.99 71.01 70.81 70.66 70.40 69.68 69.49 67.68 62.95 63.19 64.43 64.62 65.21 63.53 61.09 56.73 55.81 53.60 51.64 50.80 51.74 51.43 52.29 52.37 52.61 54.30 57.00 59.04 60.37 59.87 59.91 60.13 60.71
49.83 51.97 52.46 53.44 54.32 55.39 63.48 68.38 69.07 69.42 69.65 70.60 70.46 70.13 69.74 67.64 67.07 65.81 64.81 64.36 65.12 61.66 64.17 62.52 60.20 62.31 58.84 55.96 52.42 51.23 50.87 51.10 51.81 52.05 51.56 51.35 55.28 58.20 59.78 60.82 60.30 60.44 61.16
49.78 51.28 53.03 53.49 55.28 56.58 57.16 66.80 67.82 67.98 68.92 69.08 69.99 68.85 69.60 68.66 66.38 65.25 64.57 64.22 63.47 63.52 62.23 60.86 59.03 58.73 58.85 55.19 53.12 51.73 50.97 50.90 50.79 50.96 52.07 49.00 52.39 56.46 59.16 60.85 61.40 60.99 61.04
49.18 51.31 52.74 54.49 56.70 58.18 57.32 65.80 67.19 67.11 67.10 66.72 67.25 66.40 66.27 67.18 66.63 67.31 65.41 63.58 63.54 63.05 63.12 60.18 57.58 55.54 56.64 56.22 53.65 51.75 50.39 50.20 49.99 50.49 51.16 49.11 50.18 53.66 56.78 60.04 61.62 61.70 61.28
48.50 50.33 52.78 53.91 55.38 57.58 59.29 65.01 65.31 64.82 63.35 62.74 61.25 62.57 62.76 63.87 63.75 63.62 63.03 63.53 62.39 61.52 60.48 58.68 56.13 54.84 52.61 51.23 54.43 51.98 51.12 50.91 50.14 49.92 50.10 51.02 48.01 50.54 52.78 56.41 59.85 61.89 62.93
47.96 50.03 48.39 50.24 57.20 60.36 61.33 58.88 56.79 56.75 56.78 56.11 56.69 57.91 58.48 60.52 61.31 60.44 59.23 58.56 58.40 58.50 56.70 55.78 54.13 53.55 52.56 53.53 51.88 50.92 52.30 51.56 51.08 49.98 49.61 49.53 50.35 50.48 50.07 53.00 55.18 57.81 58.99
46.83 47.53 46.47 49.87 51.98 51.17 50.77 50.57 50.23 50.11 49.65 50.03 51.45 52.62 54.86 56.74 57.34 56.58 55.86 55.07 55.55 55.01 54.14 52.60 51.82 51.26 51.05 52.58 53.98 52.37 49.54 51.67 51.48 50.97 50.53 50.18 49.73 48.91 51.24 50.07 51.63 53.46 55.27
45.79 46.46 45.63 47.68 48.82 47.98 47.26 46.09 45.56 45.87 46.25 47.07 48.38 48.62 48.52 50.73 51.37 51.07 52.74 52.89 52.80 52.25 52.25 51.87 51.49 50.23 50.01 49.06 46.82 47.61 47.74 47.76 51.51 50.60 50.62 49.31 48.69 48.30 48.43 48.60 47.29 48.05 49.92
45.48 46.94 44.93 45.27 47.84 46.88 46.16 45.30 44.93 45.18 45.81 45.96 45.01 45.71 46.32 47.18 49.25 49.93 49.32 50.27 51.39 51.74 50.45 52.00 51.52 50.88 49.27 48.55 47.56 47.73 51.96 51.41 51.58 50.84 48.88 47.47 47.71 47.09 47.46 47.40 48.35 48.53 47.16
44.48 46.44 44.92 45.00 45.01 47.38 46.39 45.54 45.04 44.58 43.93 43.07 43.10 44.45 45.35 46.26 47.09 47.93 47.82 48.59 49.23 48.42 48.28 48.63 50.44 49.34 47.83 48.19 50.29 50.65 51.66 49.24 48.24 48.76 48.81 47.93 46.79 47.25 47.34 46.98 47.01 47.05 47.25
42.17 43.73 44.97 44.42 44.23 46.63 47.31 46.16 44.77 42.05 40.99 40.88 40.68 40.37 41.12 41.53 42.25 43.01 43.98 43.83 45.13 45.22 44.86 45.85 46.79 47.50 47.23 46.29 45.06 47.45 46.77 48.72 47.68 48.46 47.32 45.61 46.92 47.12 47.24 47.57 47.43 47.20 47.17
40.08 40.78 41.70 43.04 43.94 44.61 44.03 42.93 41.69 41.41 40.83 39.35 38.51 37.79 38.06 38.86 39.11 39.52 39.65 39.79 39.95 41.03 39.93 41.18 42.84 43.98 43.32 45.22 44.92 44.19 43.12 41.88 42.66 46.61 45.17 46.79 45.53 45.55 46.06 46.33 46.26 46.68 47.04
38.41 39.65 40.71 41.40 41.87 42.07 43.45 43.73 42.94 40.62 36.85 36.54 36.60 36.73 36.49 37.16 36.98 37.41 37.50 37.59 37.57 37.66 37.16 37.07 37.98 38.45 39.39 37.36 42.02 41.70 43.15 41.86 39.18 38.56 43.50 43.03 42.62 40.13 41.73 43.98 43.15 44.66 45.64
37.77 37.93 38.54 38.97 38.84 39.53 40.29 40.41 39.19 37.05 36.51 36.73 36.38 35.56 35.37 35.43 35.75 35.69 36.04 36.07 35.78 36.03 35.91 35.79 35.95 35.96 36.26 35.84 35.72 36.26 37.14 38.56 39.31 34.63 33.18 35.48 37.39 38.89 41.06 39.38 41.65 42.34 44.56
36.45 36.97 37.44 37.31 36.82 37.86 38.45 38.58 37.91 36.45 35.81 35.45 35.28 34.55 34.39 34.44 34.18 34.05 34.03 34.07 33.99 33.87 33.75 34.24 34.45 34.00 34.39 34.33 34.68 34.76 33.93 32.96 32.50 32.52 31.77 32.64 33.24 35.61 37.11 38.33 39.76 41.29 42.82

GFSSE_sfc_wetblb_033.txt.gz
Wetbulb
69.02 72.66 73.70 74.17 73.43 73.44 73.07 72.79 73.00 73.20 73.22 72.89 72.70 72.57 72.37 72.27 72.43 72.38 72.33 71.68 70.96 70.45 69.99 69.24 68.66 68.34 68.75 69.23 69.11 69.28 70.31 70.48 70.34 70.71 71.11 71.19 71.12 71.27 71.19 71.77 71.79 71.56 72.59
70.19 72.65 72.62 74.02 73.91 73.60 73.15 72.86 73.09 73.20 73.23 72.98 72.92 72.92 72.97 72.88 72.41 72.38 71.78 71.49 70.59 70.08 69.27 68.61 67.83 67.01 66.49 66.46 67.12 67.70 69.13 69.78 69.80 69.96 70.52 71.34 71.38 70.65 70.40 70.52 71.08 70.84 71.57
69.57 72.46 73.17 73.21 73.92 73.97 73.55 73.10 72.67 73.05 72.56 72.24 71.82 71.85 71.72 71.45 71.56 72.29 71.53 71.31 70.61 69.99 69.19 68.09 66.98 65.63 64.79 65.09 65.51 66.19 68.23 68.40 68.65 69.10 70.09 69.55 70.02 70.74 70.34 69.95 70.00 69.83 70.25
69.15 71.83 72.97 71.96 73.53 73.73 73.42 73.11 73.03 72.81 72.15 71.66 71.09 70.76 70.71 71.66 72.62 72.07 71.58 71.38 70.60 70.02 69.27 68.35 66.65 64.76 63.66 63.41 64.02 65.33 67.35 68.37 68.34 69.18 68.40 68.46 69.37 69.92 69.96 69.76 69.46 69.36 69.44
69.19 71.46 72.77 71.90 73.08 73.43 73.17 72.82 72.67 72.50 71.93 71.28 70.92 70.77 70.61 71.05 72.01 71.75 71.34 70.82 69.85 69.03 68.40 67.54 66.14 63.92 62.44 62.50 63.29 65.10 66.37 67.22 67.79 67.95 67.57 68.01 69.79 69.58 69.70 69.51 68.83 68.54 68.62
69.13 71.02 71.12 72.21 73.13 73.19 73.21 72.62 72.25 72.33 72.01 71.55 71.27 71.36 71.41 70.80 70.72 71.16 71.05 70.04 68.30 67.73 67.11 66.13 65.17 62.55 61.50 62.12 62.79 64.56 65.29 65.77 66.00 66.74 66.86 68.53 68.40 69.47 69.64 69.41 68.92 68.22 68.41
68.94 70.22 72.22 71.54 72.55 72.50 72.35 72.27 72.29 71.92 71.98 71.70 71.35 71.41 71.63 71.02 71.11 71.05 69.96 69.38 67.88 67.03 66.54 65.32 64.09 61.54 60.51 61.18 62.21 62.69 62.91 63.09 64.29 65.16 65.75 66.58 66.40 67.89 68.13 67.74 67.07 66.55 66.35
68.97 70.10 71.15 69.04 69.65 71.46 71.91 72.00 71.96 72.07 71.82 71.04 71.18 71.18 70.70 70.76 70.60 70.19 69.23 68.40 67.74 67.03 66.33 64.53 63.17 60.76 59.16 59.58 60.40 60.77 60.42 60.78 61.67 62.77 64.21 65.05 65.28 65.57 65.63 65.93 66.43 66.30 65.59
67.36 69.39 70.12 70.61 70.02 66.95 68.53 70.13 70.78 71.08 71.11 71.09 71.12 70.94 70.50 70.06 69.84 68.45 68.92 68.39 67.52 66.72 65.80 64.05 62.53 60.37 58.26 57.95 56.97 56.41 56.84 58.21 60.09 60.95 60.97 62.10 62.92 63.74 63.49 63.03 63.49 64.53 65.08
59.52 61.52 63.53 68.25 69.36 70.29 71.45 66.31 66.52 67.88 69.71 69.98 69.79 69.08 68.26 68.15 68.16 66.82 66.13 67.89 67.23 66.17 65.24 63.68 61.90 59.84 56.84 55.10 54.51 53.24 54.64 56.64 55.85 57.14 58.56 57.22 61.11 61.95 62.09 62.26 61.89 62.43 63.03
55.41 55.96 57.35 59.00 63.46 67.53 68.55 68.08 65.05 64.41 66.32 66.93 67.48 65.99 65.73 69.97 69.72 66.54 64.66 66.30 67.20 66.18 64.78 63.51 61.86 58.88 54.06 52.28 52.19 52.65 54.18 53.12 53.37 54.12 54.67 56.19 58.64 60.81 61.58 61.08 61.23 61.10 61.78
53.41 54.49 55.29 56.46 57.74 60.46 65.93 68.42 69.55 70.04 70.74 70.58 70.37 70.33 69.92 69.86 69.29 67.93 63.96 63.42 64.75 64.82 64.97 63.40 60.69 57.73 57.57 56.63 53.11 54.29 52.38 52.62 52.96 53.07 52.43 54.10 57.41 59.73 61.02 61.64 61.09 61.15 61.82
53.07 54.53 55.30 56.06 57.09 58.00 62.98 67.11 68.97 69.93 70.19 69.86 70.24 70.04 69.60 69.29 68.44 67.26 65.28 64.43 65.12 61.82 64.54 62.68 60.43 61.57 60.80 58.23 55.19 53.38 52.60 53.05 52.50 52.78 51.31 51.95 55.13 58.67 60.50 61.50 61.85 61.35 61.63
52.76 54.18 55.82 56.57 57.80 58.86 58.92 66.48 67.92 68.39 69.15 69.35 69.16 68.88 68.83 68.73 68.21 66.42 65.24 65.45 66.32 64.34 63.72 61.76 60.30 58.82 59.02 57.50 55.58 54.12 52.51 52.37 51.73 52.23 51.23 50.44 52.72 55.65 58.35 61.18 62.06 61.97 61.52
51.97 53.88 55.68 57.26 58.04 59.55 58.97 65.04 67.52 66.95 66.90 66.52 66.21 65.71 66.98 67.13 66.93 67.17 66.02 65.83 64.20 63.96 63.80 62.47 60.38 58.09 56.72 56.30 56.02 54.39 53.16 52.40 51.80 51.94 52.61 49.77 50.32 52.83 55.43 58.06 61.79 63.33 63.42
51.92 53.87 54.50 54.96 59.25 58.41 60.81 61.68 61.15 61.05 59.79 59.09 58.74 60.98 62.92 63.74 62.71 62.64 62.23 61.51 61.22 61.53 60.25 58.40 57.22 56.53 54.50 53.62 54.82 54.38 54.10 54.12 53.32 52.67 52.48 52.75 50.48 50.29 51.58 54.64 56.98 59.84 61.41
52.08 52.63 50.82 53.93 55.69 56.62 55.82 54.27 53.85 54.27 54.17 54.06 54.40 56.42 58.04 59.71 61.12 59.02 57.62 56.71 56.72 57.18 56.69 55.89 54.52 54.61 55.52 54.49 54.66 54.60 54.25 54.93 54.03 53.43 53.11 52.77 52.75 52.16 51.08 52.39 52.90 54.52 56.52
52.03 48.87 49.79 52.15 51.72 50.88 49.95 49.41 50.19 50.39 51.38 51.19 52.85 54.06 54.94 56.21 56.49 56.88 55.99 54.32 54.43 53.93 53.65 52.33 51.89 51.38 51.51 50.82 51.07 52.13 51.02 51.15 53.93 53.62 52.99 52.23 51.86 49.91 52.34 50.22 50.13 51.34 52.44
51.27 48.34 48.75 49.82 48.61 47.55 47.11 47.42 47.18 47.92 48.96 49.94 50.43 51.19 51.96 52.00 51.62 52.00 51.93 52.05 51.79 51.58 52.43 53.08 52.81 52.61 51.98 51.91 50.83 51.74 51.72 50.28 52.75 53.07 51.96 50.07 49.54 48.98 48.65 50.38 49.73 49.26 49.60
50.78 48.37 48.12 48.73 47.67 46.94 46.64 46.60 46.90 46.56 46.81 48.83 49.14 49.72 50.23 50.64 52.16 52.90 52.59 52.10 52.81 52.06 51.58 53.47 53.06 52.41 50.00 49.38 49.88 51.88 54.25 53.63 52.83 50.79 49.57 48.90 48.54 48.81 48.55 48.24 48.61 48.08 49.74
50.07 47.12 47.93 48.01 47.98 48.31 47.55 47.48 46.82 45.96 45.91 44.88 45.09 46.18 46.52 47.47 48.57 48.99 48.70 49.26 49.32 48.30 48.20 49.03 50.83 49.48 47.95 48.37 49.94 49.66 52.21 50.10 49.64 50.27 49.22 48.34 48.17 48.36 48.68 48.73 48.47 48.36 48.25
48.52 47.07 46.51 46.39 47.94 49.16 49.73 48.59 46.86 45.09 44.13 43.01 42.76 42.24 42.71 42.88 43.44 43.78 44.22 44.35 44.96 43.95 43.85 44.69 46.03 47.30 46.84 46.33 43.89 47.24 46.53 47.33 47.88 47.94 48.26 47.47 46.12 42.70 44.93 44.32 45.56 45.59 46.85
46.56 47.26 46.81 47.25 48.43 48.33 47.18 45.64 44.13 43.54 43.08 41.07 40.00 39.16 39.65 40.02 40.31 41.37 40.82 40.90 40.64 40.56 38.98 39.88 40.75 40.96 40.50 43.55 42.58 42.82 41.03 39.78 40.95 46.82 45.96 43.14 41.52 39.73 41.46 43.00 40.61 42.46 43.81
43.95 45.07 45.95 46.08 46.40 46.54 46.61 45.64 44.74 42.88 39.29 38.89 38.00 38.11 37.93 38.52 38.45 39.24 39.27 39.15 39.22 39.15 38.26 38.37 38.68 38.53 39.01 36.37 40.10 39.29 40.23 40.63 35.82 34.04 39.39 40.74 38.76 38.58 38.24 39.39 38.53 42.29 42.60
42.39 43.18 43.78 43.39 43.07 44.10 45.02 44.94 42.73 39.59 39.11 38.45 37.85 36.73 36.45 36.68 37.02 37.05 37.38 37.58 37.11 37.38 37.24 36.83 36.67 36.70 36.77 36.09 35.93 36.24 36.66 36.28 37.04 32.78 30.29 32.34 35.66 36.92 38.45 36.99 37.86 39.46 41.22
40.08 40.88 41.66 41.11 40.66 41.38 41.84 41.78 40.41 38.83 37.98 37.34 36.87 36.02 35.65 35.65 35.55 35.67 35.74 35.87 35.44 35.08 35.09 35.26 35.75 34.68 34.97 34.49 34.77 34.42 33.25 31.78 31.02 30.76 29.82 30.26 30.63 33.59 35.17 36.53 38.51 38.07 40.51

GFSSE_sfc_wetblb_036.txt.gz
Wetbulb
68.64 71.66 73.52 74.16 73.52 73.29 73.15 73.18 73.70 73.48 73.47 72.95 72.78 72.60 72.61 72.73 72.76 72.76 72.24 71.11 70.10 70.00 69.58 68.90 68.38 68.14 68.51 68.88 69.11 70.21 70.51 70.17 70.10 70.81 71.67 71.47 71.07 70.81 70.99 71.65 71.60 71.03 72.59
70.44 71.98 72.94 73.92 74.22 73.86 73.55 73.53 73.68 73.75 73.73 73.21 72.88 73.09 72.87 72.70 72.48 71.94 71.29 70.81 69.91 69.54 68.99 68.17 67.19 66.58 66.59 66.73 67.36 68.81 69.41 69.52 69.84 69.76 70.97 71.27 71.37 70.76 70.48 70.72 70.75 70.44 71.55
70.31 71.91 72.67 73.36 73.68 73.93 73.48 73.31 73.25 73.43 73.13 72.55 72.56 72.33 71.88 71.69 72.36 71.88 71.26 71.28 70.47 69.90 69.29 68.10 66.71 65.63 64.88 65.14 66.19 67.66 68.96 69.02 69.34 69.56 69.60 68.93 68.52 70.42 70.21 70.00 70.31 70.01 70.23
70.14 71.37 71.88 72.18 73.26 73.62 73.28 73.20 73.19 73.14 72.89 71.66 71.20 71.02 71.64 72.50 71.95 71.91 71.56 70.80 70.11 69.15 68.26 68.01 66.18 64.52 64.01 64.06 65.33 66.46 67.63 68.34 69.01 68.69 66.12 68.47 68.13 70.15 70.43 69.72 69.33 69.17 69.07
68.16 71.08 71.36 71.87 73.16 73.02 72.60 72.91 73.03 72.77 72.34 71.63 70.97 70.80 71.17 72.19 71.86 71.56 70.92 69.72 68.83 67.90 67.21 66.84 64.85 63.57 63.31 63.68 64.57 65.40 66.24 66.88 67.48 66.05 67.06 67.30 67.64 69.42 70.14 69.71 68.69 68.42 68.48
67.00 71.16 70.58 71.93 72.60 72.88 72.69 72.77 72.79 72.62 72.23 71.54 71.20 71.26 70.94 70.90 71.28 71.25 70.21 68.66 68.00 67.54 66.45 65.57 63.45 62.35 62.21 62.87 63.13 63.70 64.28 64.59 65.73 62.69 65.04 65.67 66.17 68.86 68.65 68.43 67.66 67.69 67.82
66.31 70.44 71.17 71.56 72.04 72.17 72.20 72.34 72.37 72.07 71.28 71.30 71.75 71.60 70.96 71.02 71.13 70.39 70.08 68.40 67.75 67.17 65.65 64.59 62.60 61.16 60.99 61.51 61.90 61.95 62.08 62.24 58.85 60.56 62.54 61.66 63.17 66.72 66.77 67.33 67.49 66.81 66.59
67.16 68.93 70.52 69.13 69.43 70.79 71.61 71.78 71.89 71.88 71.70 71.38 71.29 71.25 70.82 70.75 70.67 69.97 69.09 68.23 67.73 66.74 65.44 64.28 62.03 60.28 59.46 59.04 58.93 59.15 59.29 60.49 58.82 57.91 59.76 59.39 64.27 64.42 64.35 64.13 64.82 65.58 65.76
61.75 65.98 68.16 69.62 68.73 66.10 67.14 68.88 70.29 70.76 70.61 70.62 70.74 70.57 70.26 70.00 69.94 69.36 69.01 68.52 67.44 66.48 65.46 64.02 61.94 59.30 57.55 57.05 56.07 55.95 57.64 58.34 53.21 55.54 56.50 56.27 63.15 63.11 63.22 62.88 62.73 63.21 63.89
55.20 56.59 58.31 62.74 67.82 68.26 69.16 65.36 65.46 67.31 68.87 69.48 69.26 68.47 67.68 67.75 66.94 66.80 66.21 67.58 67.32 66.23 65.25 63.98 62.01 58.71 55.78 55.06 54.35 55.44 56.33 56.23 49.28 50.97 51.55 55.12 60.68 62.29 62.58 62.12 62.07 62.06 62.67
52.49 51.99 53.63 54.90 58.00 65.38 67.57 66.41 64.27 63.99 65.54 66.89 66.86 65.63 64.78 67.73 66.11 64.39 64.49 66.22 66.99 66.10 64.92 63.54 61.52 58.07 55.63 55.24 54.75 54.55 54.25 47.43 47.80 48.22 49.17 56.94 59.49 61.02 62.01 62.55 61.88 62.04 62.72
48.39 50.15 51.69 52.29 53.64 55.46 64.15 66.65 67.96 67.92 68.30 68.67 67.90 67.17 67.50 67.14 67.80 65.57 62.32 63.38 64.86 64.68 64.76 62.81 60.77 59.21 57.52 50.95 48.16 51.71 46.56 46.73 46.90 46.91 48.39 55.04 57.78 60.55 61.72 62.33 62.36 62.30 62.76
47.60 50.90 52.40 52.51 53.18 53.76 55.95 64.69 66.25 66.92 66.96 67.22 67.73 66.96 66.69 66.33 65.15 64.38 62.39 62.66 62.78 61.75 61.37 60.76 59.44 59.01 55.82 52.69 50.53 47.90 47.24 45.92 45.28 46.40 50.67 53.35 55.47 57.81 59.94 62.19 62.67 62.47 62.30
48.84 50.87 52.77 54.13 54.83 54.80 54.47 61.23 65.91 65.39 65.69 65.29 65.17 65.42 65.95 65.40 64.41 64.17 63.61 63.83 63.58 62.10 61.27 60.03 56.80 55.61 55.83 54.60 51.77 49.80 48.04 46.51 45.28 45.41 47.29 52.31 53.28 55.27 57.21 59.77 62.64 63.40 63.57
48.62 51.37 52.00 53.75 55.47 56.16 54.98 62.79 64.19 62.19 60.99 60.50 61.74 62.81 64.13 64.11 63.15 63.79 63.64 63.33 62.50 61.66 60.21 59.90 57.35 55.19 52.74 53.69 52.35 50.95 49.69 48.54 47.59 46.82 45.73 50.94 52.65 53.68 55.74 57.54 59.28 61.01 62.21
50.18 50.17 51.27 54.30 56.66 57.33 57.78 57.84 57.91 57.64 57.54 56.34 58.32 59.17 60.92 61.46 60.59 59.71 58.59 58.38 58.11 58.46 57.66 55.69 54.73 54.30 52.76 52.65 52.40 52.72 51.21 50.60 49.93 48.20 47.62 46.88 52.11 52.34 53.77 55.81 56.25 57.39 58.32
49.62 49.56 50.65 52.63 54.02 53.62 53.01 53.00 53.73 53.94 54.19 54.31 55.00 55.70 56.58 58.24 58.36 56.60 55.48 54.84 54.77 55.19 54.65 54.19 53.76 53.37 51.89 52.32 52.54 52.92 51.94 50.58 50.50 49.65 48.71 48.27 48.20 51.37 53.46 52.95 53.15 53.54 54.85
48.31 47.85 50.67 51.36 50.03 49.92 49.65 50.17 50.07 50.75 50.36 51.55 51.18 51.68 52.02 53.81 53.89 53.45 52.92 52.37 53.24 53.45 53.13 51.97 51.49 51.51 51.44 50.42 50.13 49.19 49.45 49.61 50.47 50.36 48.19 46.69 45.21 45.68 48.04 51.40 51.90 52.07 53.03
47.09 48.80 49.09 49.15 48.06 47.88 47.66 48.15 48.75 49.39 49.21 49.39 49.78 50.45 50.87 50.20 50.55 50.41 50.29 50.17 51.25 51.46 51.56 51.91 49.95 48.82 45.50 45.03 45.50 46.11 47.13 46.57 48.26 46.96 44.75 44.51 44.85 44.55 43.99 48.97 50.32 50.20 51.71
46.31 48.10 48.38 47.79 46.87 46.87 47.21 47.10 46.79 46.51 46.67 46.95 45.95 45.94 46.88 47.64 48.85 48.39 47.41 47.14 47.41 46.46 45.66 46.73 46.50 45.84 43.55 42.80 45.66 47.08 46.77 45.81 45.15 44.27 43.47 45.33 43.41 42.30 43.31 44.01 44.02 45.06 49.90
45.96 47.27 47.52 46.66 46.82 47.18 46.89 45.86 45.15 43.13 42.28 40.62 41.44 41.87 41.81 43.50 44.59 44.00 43.73 43.75 42.55 41.59 41.05 42.35 45.15 43.20 40.97 40.41 42.30 42.96 43.47 43.72 42.76 42.80 42.43 41.46 38.36 38.72 39.60 39.67 38.42 39.54 42.89
44.72 45.77 46.53 47.27 47.63 48.16 48.43 46.11 44.61 41.46 38.85 38.25 37.98 38.27 38.83 39.00 39.41 39.82 38.41 37.78 37.61 36.50 36.08 36.22 36.87 39.11 39.47 37.08 37.66 39.62 39.16 41.25 39.62 42.34 38.88 39.27 35.30 35.83 36.78 37.94 36.31 37.63 39.60
44.71 45.15 45.28 46.06 47.34 46.66 44.24 42.06 40.14 39.02 37.31 35.66 34.62 34.32 35.76 36.63 36.79 36.63 35.99 35.65 35.03 34.59 33.98 33.39 33.50 33.85 32.20 34.29 34.23 35.89 33.62 32.09 33.99 38.62 34.48 34.49 33.51 33.57 33.84 36.21 35.83 36.84 38.01
41.59 45.09 45.66 45.80 44.82 44.22 42.18 39.97 38.50 36.74 33.89 33.39 33.16 33.38 33.87 34.39 34.39 34.95 34.92 34.31 33.85 33.50 32.57 32.47 33.55 31.95 32.10 29.99 32.51 34.85 31.54 32.32 28.31 25.96 30.99 31.34 32.96 33.71 32.77 32.56 33.17 35.37 36.35
39.72 40.10 41.82 40.23 40.89 41.86 42.05 40.31 36.94 34.47 33.48 32.88 32.48 31.96 31.62 32.06 32.81 33.05 32.87 32.09 32.00 32.37 31.55 31.07 30.41 30.29 30.34 29.19 29.12 29.21 29.15 28.48 27.79 25.43 22.87 25.52 28.34 30.28 30.98 31.81 32.11 34.16 35.19
37.22 37.85 37.84 37.82 37.74 38.56 38.19 36.99 35.15 33.32 32.68 32.20 31.16 30.42 30.15 30.26 30.73 31.28 31.77 30.59 30.47 30.17 30.02 29.99 29.40 28.82 28.70 28.19 28.18 27.94 27.36 25.85 24.74 24.30 22.40 23.24 23.63 26.71 30.51 30.92 31.60 32.87 33.98

GFSSE_sfc_wetblb_042.txt.gz
Wetbulb
67.08 69.83 72.75 73.21 73.34 73.11 72.92 72.94 73.37 73.75 73.54 73.07 73.20 72.89 72.40 71.63 70.98 71.13 70.63 70.11 69.49 68.83 68.23 67.75 67.68 68.14 68.71 69.44 70.00 70.23 70.17 69.95 70.37 70.58 70.88 70.77 70.52 70.56 70.67 70.53 71.18 70.28 72.05
69.54 70.57 71.77 73.09 73.51 72.99 73.16 73.55 73.61 73.51 73.49 73.11 72.89 72.54 72.26 71.64 71.09 71.08 70.08 68.65 68.33 68.86 67.89 67.26 66.56 66.64 67.34 67.71 68.43 69.33 69.30 68.92 69.49 69.80 69.79 70.37 70.65 69.88 69.95 69.65 69.73 69.08 71.30
70.40 71.17 71.51 72.42 73.41 73.36 73.45 73.42 73.30 73.40 73.05 72.34 71.81 72.65 72.14 71.67 71.53 70.66 69.20 68.15 67.67 68.24 67.69 66.90 66.16 65.79 65.73 66.17 67.39 68.40 67.99 69.27 70.17 69.59 68.99 66.83 67.99 69.64 69.04 67.91 67.72 68.57 69.01
70.86 71.46 71.28 71.35 73.01 73.10 73.24 73.18 72.88 72.65 72.19 71.36 72.28 72.39 71.79 71.73 71.01 69.87 68.92 67.48 67.05 67.32 66.62 65.69 65.10 64.69 64.37 65.06 66.50 66.60 68.09 68.97 67.89 67.42 65.96 66.22 66.89 68.91 68.55 68.02 67.82 67.65 67.37
70.19 71.33 70.67 71.30 72.61 72.85 72.53 72.67 72.60 72.34 71.98 71.12 71.88 71.80 71.51 71.48 70.22 69.30 68.45 66.90 66.02 65.25 64.87 63.99 63.68 63.36 63.33 64.17 64.90 65.63 67.20 66.38 64.73 62.81 62.09 63.88 64.82 66.76 67.35 67.56 67.10 66.80 66.48
69.61 70.66 69.90 71.53 72.54 72.64 72.72 72.74 72.42 72.09 71.38 71.21 71.12 71.52 71.09 71.04 69.70 69.03 67.98 67.08 66.40 65.00 63.55 62.44 61.74 61.66 61.98 63.02 63.28 64.35 65.49 64.21 61.69 58.64 59.02 61.36 61.75 66.05 66.11 66.26 66.15 65.85 65.94
68.61 69.74 70.07 71.01 71.88 72.21 72.46 72.53 72.52 72.05 71.68 71.50 71.33 70.87 70.91 70.71 69.66 68.88 67.68 67.33 66.75 65.83 64.18 61.31 60.39 59.97 60.15 60.88 61.04 61.42 62.52 60.65 55.97 55.93 56.83 58.18 60.76 64.56 64.25 64.13 64.38 64.93 64.99
68.44 69.81 69.82 68.56 69.49 70.67 71.32 71.82 71.76 71.07 71.32 71.13 71.09 70.59 70.70 70.37 69.62 68.82 67.81 67.36 66.71 65.81 64.10 61.30 59.24 58.38 58.69 59.37 59.28 59.38 58.50 55.90 53.00 53.20 54.39 56.08 64.43 64.21 64.03 63.58 63.69 64.01 64.23
58.15 63.65 68.12 68.30 67.48 67.84 68.77 69.10 69.98 70.41 70.54 70.58 70.71 70.67 70.27 69.64 69.55 69.08 68.18 67.38 66.77 65.72 63.69 61.45 59.37 58.12 58.10 58.19 57.97 57.54 56.72 54.31 47.72 51.55 54.86 55.76 63.69 64.08 64.14 63.55 63.65 64.07 64.16
52.15 53.42 54.95 63.43 67.75 67.70 67.15 64.55 67.06 68.39 68.69 68.99 68.62 67.73 66.70 67.10 67.45 67.13 66.12 67.16 66.66 65.37 63.20 61.61 59.58 58.35 57.67 57.23 57.03 55.93 54.10 51.85 45.45 48.49 51.41 56.97 62.73 63.62 63.88 63.66 63.87 63.73 63.54
49.75 50.15 51.10 53.19 56.41 65.42 68.18 65.47 64.16 65.91 67.03 66.14 65.63 64.39 64.06 65.02 65.34 64.54 64.17 66.09 66.19 64.98 63.23 61.71 59.96 57.78 55.96 56.93 55.99 53.82 50.31 44.46 44.72 46.08 49.46 59.25 60.73 62.18 63.60 63.50 63.37 63.33 63.19
45.65 48.56 49.72 50.63 51.98 54.56 62.29 67.36 67.67 67.67 66.52 66.54 66.44 65.27 65.92 64.25 64.71 65.16 62.63 63.42 64.39 63.62 63.82 62.86 60.27 57.09 52.56 47.37 46.62 48.97 43.98 44.20 44.68 45.50 49.37 57.87 58.92 60.61 61.88 63.39 64.21 64.60 64.43
46.45 48.99 51.36 51.66 52.17 51.53 53.75 62.93 65.69 67.31 65.96 64.96 65.90 65.56 66.68 65.24 64.40 63.38 62.44 62.07 60.46 59.03 57.97 56.63 55.08 53.06 50.37 49.02 46.86 45.57 44.80 43.68 43.76 44.41 51.82 57.08 57.96 59.94 60.50 60.60 61.05 61.47 62.17
47.42 48.04 50.47 51.86 52.88 52.96 52.47 59.39 63.47 64.14 63.66 61.67 62.86 64.80 65.40 64.49 63.18 62.28 61.94 62.30 62.24 60.51 56.32 54.86 53.64 52.42 51.74 50.63 49.10 48.14 47.22 45.16 44.13 44.40 49.33 55.45 57.38 58.77 59.45 58.88 58.52 58.61 59.05
47.89 46.91 49.40 51.56 52.59 54.39 54.69 61.70 60.84 59.05 60.49 60.19 59.85 63.22 64.75 64.21 63.32 63.35 61.56 60.90 59.87 60.06 57.82 54.41 53.56 53.14 51.39 51.94 50.75 50.00 48.70 46.81 46.08 46.04 47.75 53.04 55.31 56.66 58.16 58.60 58.89 59.02 58.73
48.26 46.40 49.41 51.24 53.06 55.51 57.95 57.78 57.32 57.10 58.10 58.63 58.33 60.21 60.90 61.17 60.23 59.14 58.19 57.53 57.01 56.73 55.72 54.27 53.56 51.69 52.46 51.80 50.34 50.14 49.25 48.54 46.47 44.65 44.41 46.15 52.42 50.46 52.95 55.01 56.43 57.41 58.37
47.52 48.53 49.11 50.74 51.74 52.55 54.26 54.24 54.47 55.04 55.33 54.89 55.50 56.84 57.21 57.56 57.08 56.50 55.80 55.09 55.00 55.02 54.44 53.64 51.40 51.15 49.74 50.03 49.04 49.76 48.59 45.34 44.62 44.50 43.56 42.61 43.10 46.79 48.07 50.60 52.14 54.11 55.79
46.95 47.59 48.12 50.63 49.26 48.61 51.70 51.62 51.68 51.85 52.03 51.93 52.90 54.12 54.44 54.30 54.23 53.74 53.54 53.11 53.28 52.79 51.43 48.71 46.48 43.72 43.11 43.70 44.54 44.98 43.29 43.50 42.15 39.85 40.00 39.66 38.29 39.84 40.52 46.77 47.49 50.57 52.39
46.65 46.50 46.27 47.47 47.41 47.71 49.00 49.69 49.31 49.48 49.34 49.87 50.97 51.42 51.20 50.79 50.09 48.77 46.97 47.18 47.62 46.95 45.14 42.20 40.05 40.66 40.50 42.10 44.57 42.97 41.25 41.09 39.59 38.12 36.81 36.80 36.26 35.78 36.01 40.80 43.45 45.23 49.18
45.75 45.89 45.52 45.69 47.65 47.77 47.28 46.10 45.36 44.64 43.99 44.44 46.00 46.50 46.02 45.05 44.64 43.66 42.30 42.12 43.26 43.52 41.67 38.85 36.33 35.98 37.30 41.22 43.02 41.34 40.45 39.32 36.67 34.34 33.75 35.75 34.17 34.09 34.49 33.39 33.48 36.84 44.28
44.33 44.47 44.81 44.31 45.95 46.57 45.83 44.80 43.40 42.04 40.88 40.67 41.38 42.13 40.52 41.04 41.25 39.92 38.31 37.64 37.98 38.88 38.64 38.36 35.86 33.41 33.35 34.80 40.17 39.16 37.90 36.79 34.79 32.72 31.42 31.46 32.17 32.14 33.11 32.14 32.33 33.36 35.27
43.66 44.10 44.22 44.85 44.86 46.35 47.13 44.24 41.85 39.80 37.16 37.59 37.31 35.90 36.84 36.97 36.68 36.21 35.19 34.19 34.23 34.11 33.01 33.45 34.67 33.16 31.45 31.03 37.48 37.96 35.05 35.97 33.58 31.58 29.92 30.58 28.59 29.57 31.25 31.59 31.48 32.59 32.77
42.97 43.36 44.63 45.24 45.90 46.03 43.39 40.48 38.05 37.67 36.92 35.75 32.81 32.67 33.43 34.70 34.65 34.33 33.49 33.16 32.28 32.34 31.08 30.58 31.56 31.49 29.50 29.72 29.76 34.43 28.88 29.62 29.67 33.57 28.94 27.08 27.64 27.47 27.68 28.82 30.77 31.90 32.67
43.04 43.29 45.16 45.85 44.74 41.96 41.16 39.81 38.05 34.96 32.89 32.59 30.68 31.09 31.79 32.70 32.92 33.16 32.74 32.27 31.66 31.74 30.71 30.11 30.12 29.69 29.60 27.93 28.55 29.73 27.08 28.67 24.40 23.90 25.44 25.98 26.89 27.60 26.41 27.04 27.87 29.97 31.16
42.29 42.88 43.83 43.07 40.67 41.14 41.51 40.01 37.02 32.64 31.88 31.26 30.62 30.27 30.24 30.73 31.49 31.52 31.28 30.60 30.35 30.21 29.09 29.02 28.42 28.10 27.79 26.49 26.12 25.72 25.03 24.25 23.13 22.85 20.97 22.01 24.66 26.01 25.40 26.19 26.53 27.84 29.16
40.14 40.79 41.18 40.45 41.25 40.92 39.91 38.03 35.17 32.12 31.38 30.43 29.52 29.26 29.06 29.28 29.22 29.55 29.84 29.20 29.03 28.64 28.06 27.60 26.93 26.74 26.06 25.60 25.39 25.36 24.85 23.11 22.52 21.57 20.29 20.47 20.62 23.36 24.73 25.39 25.39 26.70 26.69

GFSSE_sfc_wetblb_045.txt.gz
Wetbulb
66.26 68.66 71.76 72.92 73.18 73.13 72.76 72.68 72.81 72.98 72.62 72.65 72.49 71.80 71.23 71.02 70.74 69.57 69.00 69.21 68.70 68.34 67.90 67.74 68.21 68.72 69.24 69.93 70.13 69.47 69.78 69.81 70.14 70.49 70.34 70.34 69.62 69.42 69.78 69.67 69.86 69.45 71.51
68.27 69.91 70.58 72.49 72.97 72.61 72.70 72.99 73.15 72.78 72.94 72.73 72.59 71.83 71.47 71.39 70.04 68.78 68.06 68.34 68.72 68.36 67.70 67.12 66.75 66.82 67.64 68.68 68.38 69.64 70.65 69.99 69.61 69.46 69.48 69.61 69.81 68.53 68.30 68.05 68.80 68.27 70.15
69.07 70.29 70.92 72.57 73.24 73.09 73.20 73.27 73.25 73.14 72.50 72.19 72.44 71.78 71.66 70.97 69.69 68.60 67.58 68.07 67.88 67.34 66.75 66.19 65.59 65.55 66.74 67.25 68.69 70.26 69.95 69.10 68.23 67.57 67.68 65.87 66.27 68.08 67.90 67.56 67.41 67.69 68.32
69.87 70.38 70.87 71.19 72.54 72.74 72.80 72.89 72.77 72.42 72.15 72.30 72.04 71.71 71.38 70.28 69.34 67.98 66.82 65.95 65.79 65.50 65.19 64.79 64.55 64.80 65.94 66.44 68.49 68.45 67.63 66.63 65.47 64.61 63.23 63.63 65.11 67.33 67.38 67.16 67.03 66.89 66.92
69.71 70.34 70.05 70.93 72.51 72.57 72.59 72.56 72.29 71.97 72.01 71.92 71.79 71.35 71.00 69.76 69.06 67.51 67.08 65.66 64.59 63.68 63.29 63.21 63.33 64.29 64.77 65.95 67.40 66.64 65.56 64.25 62.76 60.50 59.99 62.20 62.03 65.34 66.54 66.21 65.95 65.88 65.58
69.11 69.84 69.78 71.38 72.58 72.56 72.51 72.15 71.89 71.49 71.07 71.44 71.36 71.00 70.70 69.77 68.84 67.69 67.39 66.44 65.24 62.99 61.98 61.81 62.11 63.19 63.15 64.01 65.60 64.52 63.68 62.43 59.73 56.49 57.44 60.35 60.19 64.80 65.05 64.93 65.14 65.09 65.54
68.20 68.92 69.40 70.82 71.76 72.29 72.41 72.14 71.96 71.79 71.24 71.05 70.99 70.80 70.55 69.63 68.69 67.85 67.38 66.66 65.66 63.51 61.42 60.47 60.91 61.63 61.73 62.38 63.08 61.65 60.28 59.29 54.10 54.33 55.23 57.45 60.38 64.54 64.57 64.46 64.50 64.58 64.64
68.05 68.67 69.10 67.98 69.24 70.64 71.06 71.49 71.66 71.75 71.96 71.58 71.27 70.81 70.47 69.61 68.67 67.89 67.37 66.68 65.70 64.06 61.88 59.84 59.69 60.29 60.28 60.33 60.15 58.36 56.84 55.97 53.26 53.19 54.63 56.66 64.48 64.62 64.73 64.57 64.51 64.50 64.52
63.79 67.58 67.62 68.37 68.26 67.21 68.60 69.14 69.81 70.50 70.73 70.85 70.88 70.76 70.17 69.53 69.09 68.11 67.80 66.86 65.69 64.52 62.91 61.07 59.73 59.38 58.84 58.86 58.44 56.53 55.05 54.32 48.49 51.63 54.79 56.84 64.31 64.49 64.61 64.58 64.27 63.98 63.90
54.41 57.88 62.21 66.69 66.85 66.69 66.40 63.78 66.06 67.96 68.61 68.95 68.54 67.75 66.67 67.09 67.35 66.83 65.50 66.77 65.31 63.87 62.81 61.16 59.81 58.90 58.34 57.91 56.48 54.41 52.34 50.96 46.12 49.32 51.82 57.84 63.33 64.20 64.36 63.99 63.78 63.65 63.57
50.48 50.61 52.20 58.05 60.92 66.24 67.11 64.96 63.34 65.47 66.00 66.05 65.53 64.12 63.65 65.16 65.15 64.45 63.91 65.61 65.38 63.88 62.39 60.63 58.67 56.68 54.95 55.37 54.20 52.53 49.64 44.31 45.32 47.92 50.67 60.29 61.87 62.90 63.83 64.30 64.53 64.92 65.08
46.99 48.76 49.61 50.65 53.25 55.39 61.68 67.08 67.15 67.03 66.26 66.04 65.65 64.49 64.49 64.09 64.11 64.76 62.22 62.97 63.19 62.70 62.89 60.31 57.69 54.83 50.30 45.72 45.32 47.65 43.85 44.05 45.48 47.66 52.84 60.21 60.71 61.19 61.04 60.76 60.99 61.67 62.34
45.76 48.83 51.17 51.53 52.37 51.85 55.01 63.91 66.33 67.70 67.21 66.25 66.33 66.10 65.30 64.49 64.11 63.45 62.53 61.63 59.84 57.28 55.73 54.56 52.62 50.77 48.57 47.21 46.34 45.05 44.08 43.88 44.59 48.32 54.85 59.13 60.36 61.37 61.29 60.45 59.85 59.67 59.82
46.54 47.56 49.63 51.03 52.07 52.43 52.09 60.57 64.46 64.57 64.10 63.41 64.91 64.53 65.42 64.04 62.98 62.26 61.98 61.68 60.92 58.64 54.42 53.07 51.59 50.74 49.89 49.29 48.44 46.88 45.20 44.66 45.36 48.31 52.17 55.48 57.72 59.49 60.45 60.78 60.65 60.66 60.16
47.03 47.69 48.57 50.37 51.54 53.10 52.69 62.22 61.59 61.27 61.23 61.08 63.34 64.79 64.58 63.66 62.64 62.88 62.00 61.04 60.17 58.88 56.61 52.74 51.74 51.54 50.64 50.41 49.32 47.34 45.49 44.30 43.94 45.32 47.39 50.06 53.19 55.20 57.16 58.27 58.97 59.40 59.48
47.51 47.58 48.94 50.76 52.71 55.00 56.84 59.13 58.26 59.10 59.47 59.76 59.77 61.56 62.28 62.88 61.57 60.36 58.83 57.83 57.32 56.72 55.72 53.97 51.34 52.30 51.76 51.29 50.35 48.72 46.07 44.14 43.01 42.22 42.29 43.06 47.80 50.53 52.32 55.01 56.13 57.56 58.72
47.03 47.85 48.74 50.22 53.63 55.06 56.12 55.62 56.41 56.65 56.65 56.82 57.40 58.10 58.84 59.68 58.70 57.65 56.53 55.62 55.28 55.06 54.15 52.65 50.55 50.06 49.35 49.27 46.84 44.33 43.54 41.74 40.29 38.98 38.54 38.71 37.60 45.43 48.21 50.71 53.01 54.25 56.03
46.18 47.16 48.45 50.97 52.34 53.13 53.23 53.34 53.14 53.30 53.66 53.81 54.98 55.49 55.77 55.77 56.13 55.42 54.60 53.63 53.51 52.18 50.54 48.25 46.36 44.25 43.96 44.13 41.91 40.76 39.55 37.84 37.01 36.26 36.27 36.35 35.84 35.13 40.25 46.12 48.32 50.10 51.23
46.07 46.39 46.60 47.43 50.27 50.21 49.96 50.15 50.45 50.12 50.37 51.80 52.85 53.07 52.76 52.62 52.71 52.69 51.76 50.58 49.58 46.83 44.60 41.61 39.94 41.49 42.98 41.81 41.13 39.35 37.18 35.29 34.42 35.47 33.73 33.69 34.39 33.27 33.15 40.43 42.46 44.52 47.36
45.40 45.76 45.80 46.39 48.25 47.80 46.25 46.63 46.08 44.91 44.40 45.58 46.41 48.33 49.04 48.51 48.35 48.24 47.08 46.09 44.56 40.01 37.47 37.62 38.02 37.91 40.29 40.97 40.10 37.10 35.19 33.51 31.97 31.09 31.02 32.77 32.39 32.08 31.51 32.06 32.52 35.27 45.14
44.41 44.51 44.55 44.79 45.41 45.04 44.42 43.93 43.72 42.92 42.24 42.01 42.64 44.50 44.48 43.90 42.17 42.23 41.56 41.30 40.48 37.56 35.78 35.55 35.22 38.82 34.75 36.41 36.53 35.69 34.52 32.29 30.37 29.39 28.97 28.77 29.74 30.60 30.50 30.81 31.79 32.67 34.34
44.57 44.46 44.09 44.83 44.55 45.17 45.14 42.58 41.47 40.50 36.77 38.50 39.16 39.92 40.70 38.79 38.24 38.40 38.42 36.92 35.64 34.35 33.61 33.44 33.25 31.48 30.20 30.51 37.27 35.79 31.91 33.13 31.31 29.89 27.87 28.84 26.44 27.90 29.07 30.23 30.33 31.26 30.86
43.49 44.07 44.72 44.70 44.66 45.20 42.75 38.73 36.94 36.54 37.76 37.02 36.10 36.45 35.99 35.23 35.03 35.10 34.22 33.43 32.10 31.88 31.06 31.25 31.81 31.18 28.80 29.04 29.56 36.16 31.34 32.94 28.59 31.20 27.25 25.68 25.88 25.59 25.84 27.62 29.13 30.03 29.15
44.02 44.02 44.81 44.94 44.83 41.88 39.59 38.21 38.81 36.34 33.94 35.18 34.63 34.44 32.24 32.78 32.72 32.96 32.54 31.90 31.28 30.80 30.16 29.99 30.75 29.89 29.36 27.59 27.97 28.39 25.67 27.57 24.33 23.95 24.47 24.28 25.37 25.94 24.45 25.66 26.16 27.91 27.35
43.61 43.76 44.33 44.45 42.53 40.53 40.40 40.97 40.02 37.04 31.73 31.49 33.18 32.68 30.57 30.72 31.31 31.23 30.90 30.17 30.07 29.66 28.93 29.00 28.85 28.43 27.66 26.49 26.09 25.44 24.60 22.82 22.43 22.60 21.56 22.15 24.33 24.37 24.06 24.52 25.08 24.91 25.48
42.46 43.06 43.02 43.55 40.72 40.02 40.92 40.25 38.44 35.67 32.03 30.78 30.45 31.41 29.27 28.84 28.94 29.03 28.94 28.28 28.10 28.30 28.16 27.63 27.10 26.89 26.25 25.73 25.25 25.03 24.42 23.06 22.03 21.09 19.95 19.81 20.46 22.97 23.83 24.57 24.44 24.48 24.17

GFSSE_sfc_wetblb_048.txt.gz
Wetbulb
65.21 67.90 71.35 72.08 72.31 72.61 72.61 72.78 72.63 72.92 72.40 72.43 71.52 71.52 70.73 69.27 68.52 68.62 69.05 68.75 68.25 68.05 67.97 68.22 68.93 69.69 69.42 70.24 71.14 70.54 70.32 70.25 69.85 69.66 69.44 69.28 68.51 68.98 68.87 68.84 69.47 68.72 70.79
67.50 68.86 71.21 72.30 73.01 72.90 72.91 72.87 72.94 72.53 72.62 72.36 71.56 71.72 70.24 69.10 68.08 68.56 68.91 68.37 67.90 67.46 67.09 66.71 68.10 68.94 69.46 70.65 70.55 70.03 69.73 68.96 68.49 68.26 67.99 68.13 68.42 67.84 68.00 67.31 68.41 67.24 69.37
68.12 69.63 70.66 72.24 72.75 73.12 73.15 72.50 72.72 72.84 72.74 72.20 71.72 71.32 69.93 68.81 67.66 67.65 67.49 66.86 66.48 66.35 66.06 65.98 67.44 67.86 69.59 69.57 68.87 68.62 68.05 67.18 66.46 65.90 65.67 64.76 65.10 67.74 67.00 66.77 66.48 67.03 67.95
68.87 69.71 70.24 71.11 72.53 73.01 73.08 72.92 72.50 72.33 72.79 72.02 71.49 70.78 69.71 68.43 67.43 66.53 65.84 65.34 65.03 64.98 65.05 65.66 66.85 68.13 68.88 68.23 67.79 67.06 66.36 65.59 64.70 63.92 61.65 61.87 62.92 66.32 66.57 66.36 66.29 66.30 66.07
68.71 69.66 69.51 70.82 72.35 72.68 72.54 72.33 72.11 72.56 72.63 71.75 71.18 70.51 69.70 68.38 67.94 66.98 65.87 64.45 63.71 63.49 63.99 65.06 66.07 66.95 67.85 67.19 66.55 65.72 64.81 63.73 62.36 59.79 59.10 59.87 59.71 64.44 65.98 65.85 65.29 65.18 65.23
68.39 69.04 69.44 71.16 72.48 72.34 72.22 71.89 71.67 71.71 71.70 71.23 71.06 70.24 69.80 68.45 68.29 67.46 66.53 64.83 62.90 62.47 62.88 64.09 64.59 65.29 66.05 65.22 64.54 63.91 63.11 62.12 59.07 55.64 57.23 60.10 59.77 65.36 65.75 65.48 65.20 64.89 65.14
67.51 68.26 68.94 70.87 71.77 72.15 72.10 71.82 71.77 71.57 71.50 71.46 71.12 70.06 69.45 68.47 68.16 67.41 66.70 65.22 63.24 61.60 61.70 62.70 62.97 63.26 63.30 62.11 60.95 60.56 60.44 59.78 54.31 55.16 56.38 58.72 61.16 65.32 65.76 65.47 65.23 64.77 64.47
67.45 67.86 68.58 68.00 69.42 70.61 71.39 71.61 71.71 71.72 71.58 71.30 71.02 70.44 69.62 68.53 68.11 67.49 66.73 65.59 64.20 62.35 60.98 61.28 61.12 61.01 60.88 59.44 58.38 58.32 58.36 56.78 53.20 53.24 55.46 58.20 64.46 65.17 65.38 64.79 64.49 64.16 63.96
65.81 66.83 67.38 67.84 67.69 67.21 68.54 69.16 69.95 70.84 70.87 70.93 70.75 70.51 69.72 68.99 68.53 67.75 67.35 65.99 64.91 63.64 62.07 60.83 59.95 59.81 59.29 57.92 56.54 55.97 56.37 55.75 49.47 51.68 55.12 57.66 64.72 65.39 65.23 65.28 64.74 64.44 64.30
59.43 63.15 65.24 67.14 67.82 67.74 67.42 64.81 66.48 68.01 68.65 68.93 68.73 67.58 66.65 66.80 66.74 66.06 64.95 65.56 64.37 62.97 61.65 60.43 59.52 58.94 58.10 56.96 55.37 53.82 53.12 52.97 48.61 50.93 53.30 59.76 63.48 64.21 64.82 64.56 64.68 65.30 65.43
52.55 53.13 55.39 63.07 64.80 66.04 65.76 64.65 62.88 65.55 66.22 66.05 65.34 63.99 63.65 64.85 64.33 63.66 63.57 64.68 64.08 62.94 61.09 59.04 56.95 56.13 55.50 55.04 53.78 52.35 50.38 46.12 49.66 52.03 54.32 61.16 61.54 61.87 61.92 62.02 62.18 62.88 62.97
50.78 49.98 50.60 53.55 55.99 58.01 63.72 67.34 66.78 66.64 66.05 65.71 65.45 64.51 64.38 63.87 63.96 64.18 61.51 61.96 62.87 61.88 60.32 58.67 56.27 53.10 48.74 44.54 45.50 48.24 45.78 47.37 50.17 52.66 56.52 61.58 62.32 62.92 62.67 62.06 61.25 60.90 60.82
48.46 49.00 50.72 51.07 52.97 54.73 57.57 64.69 66.99 67.57 65.74 65.16 66.25 65.91 65.26 64.40 64.03 63.56 61.96 60.40 58.42 55.75 53.29 52.23 50.05 48.55 46.95 46.10 44.87 44.41 45.67 47.29 49.01 48.72 53.34 58.96 60.40 61.52 61.90 62.00 62.12 61.89 61.35
46.66 48.12 50.09 50.88 51.73 52.17 52.57 57.80 64.18 65.59 65.80 65.65 65.72 65.59 64.64 63.91 63.21 62.52 61.76 60.47 58.86 56.28 52.69 51.03 49.69 49.05 48.46 47.42 45.64 44.83 44.62 45.69 46.64 45.12 49.03 54.26 57.11 59.24 60.09 60.43 60.46 60.86 61.28
45.47 47.34 49.13 49.64 51.04 52.36 51.57 61.96 61.48 62.79 63.12 63.36 64.62 65.31 64.59 63.03 62.68 62.35 61.84 60.94 58.73 57.14 54.64 51.40 50.97 50.97 48.74 47.08 45.50 44.79 43.18 42.52 42.15 42.25 42.55 50.78 53.02 55.71 57.49 58.65 59.64 59.49 59.33
45.75 46.80 47.98 49.55 50.90 52.29 53.46 59.43 60.34 60.94 61.05 61.56 62.53 64.18 64.27 63.52 62.70 61.48 59.85 58.92 57.43 56.48 55.01 53.56 52.63 51.75 50.75 48.53 45.60 44.21 41.10 39.60 38.58 37.57 37.22 40.50 49.00 51.52 53.99 55.42 56.25 57.16 57.54
45.75 46.84 47.71 49.20 51.18 54.18 54.27 57.80 58.01 58.74 58.91 59.22 59.04 60.52 61.59 62.07 61.23 59.74 57.86 56.53 55.57 55.12 53.85 52.17 50.35 50.34 47.65 44.83 41.44 39.27 37.58 36.59 36.30 35.76 35.56 35.01 35.19 46.03 48.86 51.07 52.03 53.90 55.57
45.25 46.33 47.54 51.25 54.03 55.17 52.27 55.35 54.12 55.83 55.46 56.19 56.73 57.47 58.42 58.75 58.92 57.53 55.95 54.77 54.15 53.08 51.17 48.42 47.57 45.40 41.92 39.97 37.34 35.92 34.59 34.65 34.22 34.09 33.99 33.87 33.03 33.07 40.93 46.66 49.53 51.83 52.81
45.07 45.91 46.79 47.81 52.39 53.03 50.48 51.60 50.44 52.24 53.15 53.59 54.36 54.83 54.83 55.68 55.81 55.53 54.31 52.93 50.98 48.96 47.02 45.37 43.61 43.22 39.57 37.50 35.63 33.69 32.20 31.69 31.71 33.28 31.84 32.02 32.22 31.11 32.00 41.84 44.94 45.37 46.52
44.53 45.59 46.07 46.66 48.46 50.27 48.82 47.22 46.29 47.22 46.88 49.25 50.58 51.43 51.33 50.99 51.46 51.26 50.15 48.08 45.89 43.47 42.31 42.67 41.28 39.63 39.42 36.09 34.75 32.35 30.59 29.92 29.57 28.75 28.83 31.19 30.65 30.15 30.81 31.65 31.67 34.81 41.85
43.60 44.39 44.84 45.41 48.25 48.02 47.01 46.55 45.12 45.35 44.54 44.54 45.76 47.75 48.34 47.97 48.01 48.30 46.53 43.86 40.57 40.10 39.01 41.66 40.35 38.75 35.16 34.50 33.44 31.96 30.90 29.10 28.15 27.57 27.65 27.35 28.71 28.95 29.62 29.94 29.95 29.42 30.31
43.68 44.63 44.28 45.42 47.76 47.99 47.23 43.04 42.05 40.87 37.81 40.74 41.27 41.92 42.96 43.19 43.78 44.45 43.58 38.29 36.00 36.50 37.40 38.19 37.52 32.01 30.19 30.80 34.21 33.07 28.60 30.44 29.52 28.66 26.64 27.62 25.30 26.76 28.12 29.13 28.45 27.88 27.04
42.95 44.25 45.17 45.37 45.84 47.58 45.58 38.75 36.94 38.51 38.97 38.79 38.34 38.78 38.70 39.94 39.74 38.98 37.56 35.33 33.55 35.43 36.88 33.36 33.87 33.66 28.74 27.54 30.06 35.94 31.66 32.33 28.52 29.38 26.15 24.03 24.18 24.43 24.74 26.58 26.96 26.80 26.08
42.72 44.92 45.73 45.30 45.12 45.17 41.88 40.54 40.80 37.33 36.24 36.30 37.46 36.46 35.62 36.48 35.74 35.26 34.15 32.91 31.95 31.28 31.81 31.27 31.23 30.04 29.64 26.61 26.47 27.30 25.44 28.80 25.13 23.72 24.21 23.92 23.93 24.99 23.62 25.00 24.58 24.97 24.97
42.38 44.05 45.06 44.49 44.46 43.29 41.04 42.00 41.41 39.10 33.67 33.05 35.40 34.56 33.90 33.32 32.18 32.19 31.94 30.59 29.95 29.55 29.07 29.20 28.20 28.52 28.06 26.96 26.24 25.38 24.19 22.61 22.49 22.97 22.23 22.38 24.00 23.49 23.42 23.88 23.70 22.88 24.42
41.39 43.07 43.67 43.80 43.81 40.76 40.06 39.73 41.66 37.20 33.34 33.46 33.63 33.36 32.52 31.74 29.22 29.50 29.36 28.84 28.65 28.62 28.22 27.62 27.07 27.46 26.78 25.97 25.75 25.48 24.97 23.75 22.10 21.40 20.12 19.48 20.14 22.54 23.60 23.60 23.70 23.18 23.16